Wetterdaten: Samstag, 23.09.2017
Datum Zeit Temp. Aussen Temp. o. S. +5cm Feuchte Auss BlattFeu 1 Luftdruck Regen Sonnenschein Regendauer Solar Windben Empfang
23.09.2017 00:00 14,7 C 13,3 C 12,8 C 94 % 15 lf 1021,7 hPa 0,0 l/m 0 min 0 min 5 W/m 0,0 km/h (0 Bft) 95,74 %
23.09.2017 00:02 14,6 C 13,9 C 12,8 C 94 % 15 lf 1021,7 hPa 0,0 l/m 0 min 0 min 5 W/m 0,0 km/h (0 Bft) 93,02 %
23.09.2017 00:04 14,6 C 13,9 C 12,8 C 95 % 15 lf 1021,7 hPa 0,0 l/m 0 min 0 min 5 W/m 0,0 km/h (0 Bft) 93,62 %
23.09.2017 00:07 14,6 C 13,9 C 12,8 C 95 % 15 lf 1021,8 hPa 0,0 l/m 0 min 0 min 5 W/m 6,3 km/h (2 Bft) 93,62 %
23.09.2017 00:08 14,6 C 13,9 C 12,8 C 95 % 15 lf 1021,8 hPa 0,0 l/m 0 min 0 min 5 W/m 6,3 km/h (2 Bft) 97,96 %
23.09.2017 00:10 14,6 C 13,9 C 12,8 C 95 % 15 lf 1021,8 hPa 0,0 l/m 0 min 0 min 5 W/m 4,2 km/h (1 Bft) 97,14 %
23.09.2017 00:12 14,6 C 13,9 C 12,8 C 95 % 15 lf 1021,7 hPa 0,0 l/m 0 min 0 min 5 W/m 0,0 km/h (0 Bft) 97,87 %
23.09.2017 00:14 14,6 C 13,9 C 12,8 C 95 % 15 lf 1021,7 hPa 0,0 l/m 0 min 0 min 5 W/m 0,0 km/h (0 Bft) 95,74 %
23.09.2017 00:16 14,6 C 13,9 C 12,8 C 95 % 15 lf 1021,9 hPa 0,0 l/m 0 min 0 min 5 W/m 4,2 km/h (1 Bft) 97,87 %
23.09.2017 00:18 14,6 C 13,9 C 12,8 C 95 % 15 lf 1021,8 hPa 0,0 l/m 0 min 0 min 5 W/m 0,0 km/h (0 Bft) 97,87 %
23.09.2017 00:20 14,6 C 13,9 C 12,8 C 95 % 15 lf 1021,8 hPa 0,0 l/m 0 min 0 min 5 W/m 0,0 km/h (0 Bft) 97,87 %
23.09.2017 00:22 14,6 C 13,9 C 12,8 C 95 % 15 lf 1021,8 hPa 0,0 l/m 0 min 0 min 5 W/m 0,0 km/h (0 Bft) 95,65 %
23.09.2017 00:24 14,6 C 13,9 C 12,8 C 95 % 15 lf 1021,8 hPa 0,0 l/m 0 min 0 min 5 W/m 0,0 km/h (0 Bft) 95,74 %
23.09.2017 00:26 14,6 C 13,9 C 12,8 C 95 % 15 lf 1021,9 hPa 0,0 l/m 0 min 0 min 5 W/m 0,0 km/h (0 Bft) 95,74 %
23.09.2017 00:28 14,5 C 13,9 C 12,8 C 95 % 15 lf 1021,8 hPa 0,0 l/m 0 min 0 min 5 W/m 0,0 km/h (0 Bft) 97,87 %
23.09.2017 00:30 14,6 C 13,9 C 12,8 C 95 % 15 lf 1021,8 hPa 0,0 l/m 0 min 0 min 5 W/m 0,0 km/h (0 Bft) 93,62 %
23.09.2017 00:32 14,5 C 13,9 C 12,8 C 95 % 15 lf 1021,8 hPa 0,0 l/m 0 min 0 min 5 W/m 0,0 km/h (0 Bft) 95,74 %
23.09.2017 00:34 14,5 C 13,9 C 12,8 C 95 % 15 lf 1021,8 hPa 0,0 l/m 0 min 0 min 5 W/m 6,3 km/h (2 Bft) 97,83 %
23.09.2017 00:36 14,5 C 13,3 C 12,8 C 95 % 15 lf 1021,7 hPa 0,0 l/m 0 min 0 min 5 W/m 4,2 km/h (1 Bft) 97,87 %
23.09.2017 00:38 14,5 C 13,3 C 12,8 C 95 % 15 lf 1021,8 hPa 0,0 l/m 0 min 0 min 5 W/m 2,1 km/h (1 Bft) 95,74 %
23.09.2017 00:40 14,5 C 13,3 C 12,8 C 95 % 15 lf 1021,8 hPa 0,0 l/m 0 min 0 min 5 W/m 2,1 km/h (1 Bft) 97,87 %
23.09.2017 00:42 14,5 C 13,3 C 12,8 C 95 % 15 lf 1021,8 hPa 0,0 l/m 0 min 0 min 5 W/m 2,1 km/h (1 Bft) 97,87 %
23.09.2017 00:44 14,5 C 13,3 C 12,2 C 95 % 15 lf 1021,9 hPa 0,0 l/m 0 min 0 min 5 W/m 2,1 km/h (1 Bft) 95,74 %
23.09.2017 00:46 14,4 C 13,3 C 12,2 C 95 % 15 lf 1021,9 hPa 0,0 l/m 0 min 0 min 5 W/m 2,1 km/h (1 Bft) 95,65 %
23.09.2017 00:48 14,4 C 13,3 C 12,2 C 95 % 15 lf 1022,0 hPa 0,0 l/m 0 min 0 min 5 W/m 2,1 km/h (1 Bft) 93,62 %
23.09.2017 00:50 14,4 C 13,3 C 12,2 C 95 % 15 lf 1022,0 hPa 0,0 l/m 0 min 0 min 5 W/m 4,2 km/h (1 Bft) 98,31 %
23.09.2017 00:52 14,4 C 13,3 C 12,2 C 95 % 15 lf 1022,0 hPa 0,0 l/m 0 min 0 min 5 W/m 0,0 km/h (0 Bft) 97,14 %
23.09.2017 00:54 14,4 C 12,8 C 12,2 C 95 % 15 lf 1021,9 hPa 0,0 l/m 0 min 0 min 5 W/m 0,0 km/h (0 Bft) 97,87 %
23.09.2017 00:56 14,4 C 12,8 C 11,7 C 95 % 15 lf 1022,0 hPa 0,0 l/m 0 min 0 min 5 W/m 0,0 km/h (0 Bft) 95,74 %
23.09.2017 00:58 14,4 C 12,8 C 11,7 C 95 % 15 lf 1022,1 hPa 0,0 l/m 0 min 0 min 5 W/m 0,0 km/h (0 Bft) 97,83 %
23.09.2017 01:00 14,3 C 12,8 C 11,7 C 95 % 15 lf 1022,1 hPa 0,0 l/m 0 min 0 min 5 W/m 0,0 km/h (0 Bft) 97,87 %
23.09.2017 01:02 14,3 C 12,8 C 11,7 C 95 % 15 lf 1022,1 hPa 0,0 l/m 0 min 0 min 0 W/m 0,0 km/h (0 Bft) 95,74 %
23.09.2017 01:04 14,3 C 12,8 C 11,7 C 95 % 15 lf 1022,1 hPa 0,0 l/m 0 min 0 min 5 W/m 0,0 km/h (0 Bft) 95,74 %
23.09.2017 01:06 14,2 C 12,8 C 11,7 C 95 % 15 lf 1022,1 hPa 0,0 l/m 0 min 0 min 5 W/m 0,0 km/h (0 Bft) 93,62 %
23.09.2017 01:08 14,2 C 12,8 C 11,7 C 95 % 15 lf 1022,1 hPa 0,0 l/m 0 min 0 min 5 W/m 0,0 km/h (0 Bft) 97,83 %
23.09.2017 01:10 14,2 C 12,8 C 11,7 C 95 % 15 lf 1022,1 hPa 0,0 l/m 0 min 0 min 5 W/m 0,0 km/h (0 Bft) 97,87 %
23.09.2017 01:12 14,2 C 12,8 C 12,2 C 95 % 15 lf 1022,1 hPa 0,0 l/m 0 min 0 min 5 W/m 6,3 km/h (2 Bft) 97,87 %
23.09.2017 01:14 14,2 C 13,3 C 12,2 C 95 % 15 lf 1022,2 hPa 0,0 l/m 0 min 0 min 5 W/m 2,1 km/h (1 Bft) 97,87 %
23.09.2017 01:16 14,2 C 13,3 C 12,2 C 95 % 15 lf 1022,2 hPa 0,0 l/m 0 min 0 min 5 W/m 0,0 km/h (0 Bft) 97,87 %
23.09.2017 01:18 14,2 C 13,3 C 12,2 C 95 % 15 lf 1022,2 hPa 0,0 l/m 0 min 0 min 5 W/m 4,2 km/h (1 Bft) 97,87 %
23.09.2017 01:20 14,2 C 13,3 C 12,2 C 95 % 15 lf 1022,1 hPa 0,0 l/m 0 min 0 min 5 W/m 4,2 km/h (1 Bft) 95,65 %
23.09.2017 01:22 14,2 C 13,3 C 12,2 C 95 % 15 lf 1022,1 hPa 0,0 l/m 0 min 0 min 0 W/m 4,2 km/h (1 Bft) 97,87 %
23.09.2017 01:24 14,2 C 13,3 C 12,2 C 95 % 15 lf 1022,1 hPa 0,0 l/m 0 min 0 min 0 W/m 6,3 km/h (2 Bft) 93,62 %
23.09.2017 01:26 14,2 C 13,3 C 12,2 C 95 % 15 lf 1022,0 hPa 0,0 l/m 0 min 0 min 0 W/m 2,1 km/h (1 Bft) 97,87 %
23.09.2017 01:28 14,2 C 12,8 C 12,2 C 95 % 15 lf 1022,0 hPa 0,0 l/m 0 min 0 min 0 W/m 4,2 km/h (1 Bft) 97,87 %
23.09.2017 01:30 14,2 C 12,8 C 12,2 C 95 % 15 lf 1022,0 hPa 0,0 l/m 0 min 0 min 0 W/m 2,1 km/h (1 Bft) 97,87 %
23.09.2017 01:32 14,2 C 12,8 C 11,7 C 95 % 15 lf 1022,0 hPa 0,0 l/m 0 min 0 min 0 W/m 0,0 km/h (0 Bft) 95,65 %
23.09.2017 01:34 14,2 C 12,8 C 11,7 C 95 % 15 lf 1022,1 hPa 0,0 l/m 0 min 0 min 0 W/m 4,2 km/h (1 Bft) 97,87 %
23.09.2017 01:36 14,2 C 12,8 C 11,7 C 95 % 15 lf 1022,1 hPa 0,0 l/m 0 min 0 min 0 W/m 4,2 km/h (1 Bft) 97,87 %
23.09.2017 01:38 14,1 C 12,8 C 11,7 C 95 % 15 lf 1022,1 hPa 0,0 l/m 0 min 0 min 0 W/m 2,1 km/h (1 Bft) 97,87 %
23.09.2017 01:40 14,1 C 12,8 C 11,7 C 95 % 15 lf 1022,0 hPa 0,0 l/m 0 min 0 min 0 W/m 0,0 km/h (0 Bft) 97,87 %
23.09.2017 01:42 14,1 C 12,8 C 11,7 C 95 % 15 lf 1022,0 hPa 0,0 l/m 0 min 0 min 0 W/m 2,1 km/h (1 Bft) 91,49 %
23.09.2017 01:44 14,1 C 12,8 C 11,1 C 95 % 15 lf 1022,0 hPa 0,0 l/m 0 min 0 min 5 W/m 0,0 km/h (0 Bft) 93,48 %
23.09.2017 01:46 14,0 C 12,2 C 11,1 C 95 % 15 lf 1022,0 hPa 0,0 l/m 0 min 0 min 0 W/m 0,0 km/h (0 Bft) 95,74 %
23.09.2017 01:48 14,0 C 12,2 C 11,1 C 95 % 15 lf 1022,1 hPa 0,0 l/m 0 min 0 min 0 W/m 4,2 km/h (1 Bft) 97,87 %
23.09.2017 01:50 13,9 C 12,2 C 11,1 C 95 % 15 lf 1022,1 hPa 0,0 l/m 0 min 0 min 0 W/m 4,2 km/h (1 Bft) 94,92 %
23.09.2017 01:52 13,9 C 12,2 C 11,1 C 95 % 15 lf 1022,1 hPa 0,0 l/m 0 min 0 min 0 W/m 4,2 km/h (1 Bft) 97,14 %
23.09.2017 01:54 13,9 C 12,2 C 11,1 C 95 % 15 lf 1022,1 hPa 0,0 l/m 0 min 0 min 0 W/m 4,2 km/h (1 Bft) 95,74 %
23.09.2017 01:56 13,9 C 12,2 C 11,1 C 95 % 15 lf 1022,1 hPa 0,0 l/m 0 min 0 min 0 W/m 2,1 km/h (1 Bft) 97,83 %
23.09.2017 01:58 13,8 C 12,2 C 11,1 C 95 % 15 lf 1022,1 hPa 0,0 l/m 0 min 0 min 0 W/m 2,1 km/h (1 Bft) 97,87 %
23.09.2017 02:00 13,8 C 12,2 C 10,6 C 95 % 15 lf 1022,2 hPa 0,0 l/m 0 min 0 min 2 W/m 2,1 km/h (1 Bft) 97,87 %
23.09.2017 02:02 13,8 C 12,2 C 10,6 C 95 % 15 lf 1022,1 hPa 0,0 l/m 0 min 0 min 0 W/m 2,1 km/h (1 Bft) 95,74 %
23.09.2017 02:04 13,8 C 11,7 C 10,6 C 95 % 15 lf 1022,2 hPa 0,0 l/m 0 min 0 min 0 W/m 2,1 km/h (1 Bft) 93,62 %
23.09.2017 02:06 13,7 C 11,7 C 10,6 C 95 % 15 lf 1022,2 hPa 0,0 l/m 0 min 0 min 5 W/m 2,1 km/h (1 Bft) 97,87 %
23.09.2017 02:08 13,7 C 11,7 C 10,6 C 95 % 15 lf 1022,3 hPa 0,0 l/m 0 min 0 min 0 W/m 4,2 km/h (1 Bft) 97,83 %
23.09.2017 02:10 13,7 C 12,2 C 10,6 C 95 % 15 lf 1022,3 hPa 0,0 l/m 0 min 0 min 0 W/m 4,2 km/h (1 Bft) 97,87 %
23.09.2017 02:12 13,6 C 12,2 C 11,1 C 95 % 15 lf 1022,2 hPa 0,0 l/m 0 min 0 min 4 W/m 4,2 km/h (1 Bft) 93,62 %
23.09.2017 02:14 13,6 C 12,2 C 11,1 C 95 % 15 lf 1022,2 hPa 0,0 l/m 0 min 0 min 4 W/m 4,2 km/h (1 Bft) 97,87 %
23.09.2017 02:16 13,6 C 12,2 C 11,7 C 95 % 15 lf 1022,2 hPa 0,0 l/m 0 min 0 min 2 W/m 6,3 km/h (2 Bft) 97,87 %
23.09.2017 02:18 13,6 C 12,8 C 11,7 C 95 % 15 lf 1022,2 hPa 0,0 l/m 0 min 0 min 0 W/m 6,3 km/h (2 Bft) 100,00 %
23.09.2017 02:20 13,5 C 12,8 C 11,7 C 95 % 15 lf 1022,2 hPa 0,0 l/m 0 min 0 min 0 W/m 2,1 km/h (1 Bft) 97,87 %
23.09.2017 02:22 13,5 C 12,8 C 11,7 C 95 % 15 lf 1022,2 hPa 0,0 l/m 0 min 0 min 0 W/m 4,2 km/h (1 Bft) 95,74 %
23.09.2017 02:24 13,5 C 12,8 C 11,7 C 95 % 15 lf 1022,2 hPa 0,0 l/m 0 min 0 min 0 W/m 4,2 km/h (1 Bft) 95,74 %
23.09.2017 02:26 13,4 C 12,8 C 12,2 C 95 % 15 lf 1022,1 hPa 0,0 l/m 0 min 0 min 0 W/m 2,1 km/h (1 Bft) 97,87 %
23.09.2017 02:28 13,4 C 12,8 C 12,2 C 95 % 15 lf 1022,1 hPa 0,0 l/m 0 min 0 min 0 W/m 4,2 km/h (1 Bft) 95,74 %
23.09.2017 02:30 13,4 C 12,8 C 12,2 C 95 % 15 lf 1022,1 hPa 0,0 l/m 0 min 0 min 0 W/m 4,2 km/h (1 Bft) 100,00 %
23.09.2017 02:32 13,4 C 12,8 C 12,2 C 95 % 15 lf 1022,1 hPa 0,0 l/m 0 min 0 min 0 W/m 2,1 km/h (1 Bft) 100,00 %
23.09.2017 02:34 13,4 C 12,8 C 12,2 C 95 % 15 lf 1022,1 hPa 0,0 l/m 0 min 0 min 0 W/m 4,2 km/h (1 Bft) 100,00 %
23.09.2017 02:36 13,4 C 12,8 C 12,2 C 95 % 15 lf 1022,1 hPa 0,0 l/m 0 min 0 min 0 W/m 4,2 km/h (1 Bft) 100,00 %
23.09.2017 02:38 13,4 C 12,8 C 12,2 C 95 % 15 lf 1022,2 hPa 0,0 l/m 0 min 0 min 0 W/m 4,2 km/h (1 Bft) 100,00 %
23.09.2017 02:40 13,4 C 12,8 C 12,2 C 95 % 15 lf 1022,2 hPa 0,0 l/m 0 min 0 min 0 W/m 4,2 km/h (1 Bft) 100,00 %
23.09.2017 02:42 13,4 C 12,8 C 12,2 C 95 % 15 lf 1022,3 hPa 0,0 l/m 0 min 0 min 0 W/m 2,1 km/h (1 Bft) 100,00 %
23.09.2017 02:44 13,4 C 12,8 C 12,2 C 95 % 15 lf 1022,3 hPa 0,0 l/m 0 min 0 min 0 W/m 4,2 km/h (1 Bft) 100,00 %
23.09.2017 02:46 13,4 C 12,8 C 12,2 C 95 % 15 lf 1022,2 hPa 0,0 l/m 0 min 0 min 0 W/m 4,2 km/h (1 Bft) 95,74 %
23.09.2017 02:48 13,4 C 12,8 C 12,2 C 95 % 15 lf 1022,3 hPa 0,0 l/m 0 min 0 min 0 W/m 4,2 km/h (1 Bft) 97,83 %
23.09.2017 02:50 13,4 C 12,8 C 12,2 C 95 % 15 lf 1022,3 hPa 0,0 l/m 0 min 0 min 0 W/m 2,1 km/h (1 Bft) 97,87 %
23.09.2017 02:52 13,4 C 12,8 C 12,2 C 95 % 15 lf 1022,3 hPa 0,0 l/m 0 min 0 min 0 W/m 2,1 km/h (1 Bft) 100,00 %
23.09.2017 02:54 13,4 C 12,8 C 12,2 C 95 % 15 lf 1022,3 hPa 0,0 l/m 0 min 0 min 0 W/m 2,1 km/h (1 Bft) 97,87 %
23.09.2017 02:56 13,4 C 12,8 C 12,2 C 95 % 15 lf 1022,4 hPa 0,0 l/m 0 min 0 min 0 W/m 2,1 km/h (1 Bft) 100,00 %
23.09.2017 02:58 13,4 C 12,8 C 12,2 C 95 % 15 lf 1022,4 hPa 0,0 l/m 0 min 0 min 0 W/m 4,2 km/h (1 Bft) 100,00 %
23.09.2017 03:00 13,4 C 12,8 C 12,2 C 95 % 15 lf 1022,4 hPa 0,0 l/m 0 min 0 min 0 W/m 0,0 km/h (0 Bft) 100,00 %
23.09.2017 03:02 13,4 C 12,8 C 12,2 C 96 % 15 lf 1022,3 hPa 0,0 l/m 0 min 0 min 0 W/m 0,0 km/h (0 Bft) 95,74 %
23.09.2017 03:04 13,4 C 12,8 C 12,2 C 96 % 15 lf 1022,3 hPa 0,0 l/m 0 min 0 min 0 W/m 0,0 km/h (0 Bft) 100,00 %
23.09.2017 03:06 13,4 C 12,8 C 12,2 C 96 % 15 lf 1022,4 hPa 0,0 l/m 0 min 0 min 0 W/m 0,0 km/h (0 Bft) 95,74 %
23.09.2017 03:08 13,4 C 12,8 C 11,7 C 96 % 15 lf 1022,4 hPa 0,0 l/m 0 min 0 min 0 W/m 0,0 km/h (0 Bft) 97,87 %
23.09.2017 03:10 13,4 C 12,8 C 11,7 C 96 % 15 lf 1022,4 hPa 0,0 l/m 0 min 0 min 0 W/m 0,0 km/h (0 Bft) 95,74 %
23.09.2017 03:12 13,4 C 12,8 C 11,7 C 96 % 15 lf 1022,5 hPa 0,0 l/m 0 min 0 min 0 W/m 0,0 km/h (0 Bft) 97,83 %
23.09.2017 03:14 13,4 C 12,8 C 11,7 C 96 % 15 lf 1022,6 hPa 0,0 l/m 0 min 0 min 0 W/m 0,0 km/h (0 Bft) 97,87 %
23.09.2017 03:16 13,4 C 12,8 C 11,7 C 96 % 15 lf 1022,5 hPa 0,0 l/m 0 min 0 min 0 W/m 0,0 km/h (0 Bft) 91,49 %
23.09.2017 03:18 13,4 C 12,8 C 11,7 C 96 % 15 lf 1022,6 hPa 0,0 l/m 0 min 0 min 0 W/m 0,0 km/h (0 Bft) 89,36 %
23.09.2017 03:20 13,4 C 12,8 C 11,7 C 96 % 15 lf 1022,5 hPa 0,0 l/m 0 min 0 min 0 W/m 0,0 km/h (0 Bft) 91,49 %
23.09.2017 03:22 13,4 C 12,8 C 11,7 C 96 % 15 lf 1022,5 hPa 0,0 l/m 0 min 0 min 0 W/m 0,0 km/h (0 Bft) 93,62 %
23.09.2017 03:24 13,4 C 12,8 C 12,2 C 96 % 15 lf 1022,4 hPa 0,0 l/m 0 min 0 min 0 W/m 0,0 km/h (0 Bft) 91,30 %
23.09.2017 03:26 13,4 C 12,8 C 12,2 C 96 % 15 lf 1022,5 hPa 0,0 l/m 0 min 0 min 0 W/m 0,0 km/h (0 Bft) 93,62 %
23.09.2017 03:28 13,4 C 12,8 C 12,2 C 96 % 15 lf 1022,4 hPa 0,0 l/m 0 min 0 min 0 W/m 0,0 km/h (0 Bft) 95,74 %
23.09.2017 03:30 13,4 C 12,8 C 12,2 C 96 % 15 lf 1022,5 hPa 0,0 l/m 0 min 0 min 0 W/m 0,0 km/h (0 Bft) 91,49 %
23.09.2017 03:32 13,4 C 12,8 C 12,2 C 96 % 15 lf 1022,4 hPa 0,0 l/m 0 min 0 min 0 W/m 0,0 km/h (0 Bft) 93,62 %
23.09.2017 03:34 13,4 C 12,8 C 12,2 C 96 % 15 lf 1022,4 hPa 0,0 l/m 0 min 0 min 0 W/m 0,0 km/h (0 Bft) 91,49 %
23.09.2017 03:36 13,4 C 12,8 C 12,2 C 96 % 15 lf 1022,4 hPa 0,0 l/m 0 min 0 min 0 W/m 0,0 km/h (0 Bft) 89,13 %
23.09.2017 03:38 13,4 C 12,8 C 12,2 C 96 % 15 lf 1022,4 hPa 0,0 l/m 0 min 0 min 0 W/m 0,0 km/h (0 Bft) 93,62 %
23.09.2017 03:40 13,4 C 12,8 C 12,2 C 96 % 15 lf 1022,4 hPa 0,0 l/m 0 min 0 min 0 W/m 0,0 km/h (0 Bft) 95,74 %
23.09.2017 03:42 13,4 C 12,8 C 12,2 C 96 % 15 lf 1022,4 hPa 0,0 l/m 0 min 0 min 0 W/m 0,0 km/h (0 Bft) 93,62 %
23.09.2017 03:44 13,4 C 12,8 C 12,2 C 96 % 15 lf 1022,4 hPa 0,0 l/m 0 min 0 min 0 W/m 0,0 km/h (0 Bft) 93,62 %
23.09.2017 03:46 13,4 C 12,8 C 12,2 C 96 % 15 lf 1022,5 hPa 0,0 l/m 0 min 0 min 0 W/m 6,3 km/h (2 Bft) 91,30 %
23.09.2017 03:48 13,4 C 12,8 C 12,2 C 96 % 15 lf 1022,5 hPa 0,0 l/m 0 min 0 min 0 W/m 4,2 km/h (1 Bft) 95,74 %
23.09.2017 03:50 13,4 C 12,8 C 12,2 C 96 % 15 lf 1022,6 hPa 0,0 l/m 0 min 0 min 0 W/m 6,3 km/h (2 Bft) 95,74 %
23.09.2017 03:52 13,4 C 12,8 C 12,2 C 96 % 15 lf 1022,5 hPa 0,0 l/m 0 min 0 min 0 W/m 10,5 km/h (2 Bft) 95,74 %
23.09.2017 03:54 13,4 C 12,8 C 12,2 C 96 % 15 lf 1022,6 hPa 0,0 l/m 0 min 0 min 0 W/m 6,3 km/h (2 Bft) 95,74 %
23.09.2017 03:56 13,4 C 12,8 C 12,2 C 96 % 15 lf 1022,6 hPa 0,0 l/m 0 min 0 min 0 W/m 10,5 km/h (2 Bft) 97,87 %
23.09.2017 03:58 13,4 C 12,8 C 11,7 C 96 % 15 lf 1022,5 hPa 0,0 l/m 0 min 0 min 0 W/m 8,4 km/h (2 Bft) 95,65 %
23.09.2017 04:00 13,4 C 12,8 C 11,7 C 96 % 15 lf 1022,6 hPa 0,0 l/m 0 min 0 min 0 W/m 6,3 km/h (2 Bft) 93,62 %
23.09.2017 04:05 13,4 C 12,8 C 11,7 C 96 % 15 lf 1022,6 hPa 0,0 l/m 0 min 0 min 0 W/m 12,6 km/h (3 Bft) 97,44 %
23.09.2017 04:06 13,4 C 12,8 C 11,7 C 96 % 15 lf 1022,6 hPa 0,0 l/m 0 min 0 min 0 W/m 6,3 km/h (2 Bft) 91,67 %
23.09.2017 04:08 13,4 C 12,8 C 11,7 C 96 % 15 lf 1022,6 hPa 0,0 l/m 0 min 0 min 0 W/m 12,6 km/h (3 Bft) 97,87 %
23.09.2017 04:10 13,4 C 12,8 C 11,7 C 96 % 15 lf 1022,6 hPa 0,0 l/m 0 min 0 min 0 W/m 6,3 km/h (2 Bft) 91,30 %
23.09.2017 04:12 13,3 C 12,8 C 11,7 C 96 % 15 lf 1022,6 hPa 0,0 l/m 0 min 0 min 0 W/m 6,3 km/h (2 Bft) 97,87 %
23.09.2017 04:14 13,3 C 12,8 C 11,7 C 96 % 15 lf 1022,6 hPa 0,0 l/m 0 min 0 min 0 W/m 8,4 km/h (2 Bft) 97,87 %
23.09.2017 04:16 13,3 C 12,2 C 11,7 C 96 % 15 lf 1022,6 hPa 0,0 l/m 0 min 0 min 0 W/m 10,5 km/h (2 Bft) 95,74 %
23.09.2017 04:18 13,3 C 12,2 C 11,7 C 96 % 15 lf 1022,6 hPa 0,0 l/m 0 min 0 min 0 W/m 10,5 km/h (2 Bft) 93,62 %
23.09.2017 04:20 13,2 C 12,2 C 11,7 C 96 % 15 lf 1022,7 hPa 0,0 l/m 0 min 0 min 0 W/m 8,4 km/h (2 Bft) 100,00 %
23.09.2017 04:22 13,2 C 12,2 C 11,7 C 96 % 15 lf 1022,6 hPa 0,0 l/m 0 min 0 min 0 W/m 8,4 km/h (2 Bft) 97,83 %
23.09.2017 04:24 13,2 C 12,2 C 11,7 C 96 % 15 lf 1022,6 hPa 0,0 l/m 0 min 0 min 0 W/m 10,5 km/h (2 Bft) 100,00 %
23.09.2017 04:26 13,2 C 12,2 C 11,7 C 96 % 15 lf 1022,7 hPa 0,0 l/m 0 min 0 min 0 W/m 8,4 km/h (2 Bft) 100,00 %
23.09.2017 04:28 13,1 C 12,2 C 11,7 C 96 % 15 lf 1022,7 hPa 0,0 l/m 0 min 0 min 0 W/m 10,5 km/h (2 Bft) 95,74 %
23.09.2017 04:30 13,1 C 12,2 C 11,7 C 96 % 15 lf 1022,7 hPa 0,0 l/m 0 min 0 min 0 W/m 10,5 km/h (2 Bft) 95,74 %
23.09.2017 04:32 13,1 C 12,2 C 11,7 C 96 % 15 lf 1022,7 hPa 0,0 l/m 0 min 0 min 0 W/m 8,4 km/h (2 Bft) 95,74 %
23.09.2017 04:34 13,0 C 12,2 C 11,7 C 96 % 15 lf 1022,8 hPa 0,0 l/m 0 min 0 min 0 W/m 8,4 km/h (2 Bft) 97,83 %
23.09.2017 04:36 13,0 C 12,2 C 11,7 C 96 % 15 lf 1022,7 hPa 0,0 l/m 0 min 0 min 0 W/m 8,4 km/h (2 Bft) 97,87 %
23.09.2017 04:38 12,9 C 12,2 C 11,1 C 96 % 15 lf 1022,7 hPa 0,0 l/m 0 min 0 min 0 W/m 10,5 km/h (2 Bft) 97,87 %
23.09.2017 04:40 12,9 C 12,2 C 11,1 C 96 % 15 lf 1022,7 hPa 0,0 l/m 0 min 0 min 0 W/m 10,5 km/h (2 Bft) 97,87 %
23.09.2017 04:42 12,9 C 12,2 C 11,1 C 96 % 15 lf 1022,7 hPa 0,0 l/m 0 min 0 min 0 W/m 10,5 km/h (2 Bft) 93,62 %
23.09.2017 04:44 12,9 C 12,2 C 11,1 C 96 % 15 lf 1022,7 hPa 0,0 l/m 0 min 0 min 0 W/m 6,3 km/h (2 Bft) 93,62 %
23.09.2017 04:46 12,8 C 12,2 C 11,1 C 96 % 15 lf 1022,7 hPa 0,0 l/m 0 min 0 min 0 W/m 8,4 km/h (2 Bft) 95,65 %
23.09.2017 04:48 12,8 C 12,2 C 11,7 C 96 % 15 lf 1022,8 hPa 0,0 l/m 0 min 0 min 0 W/m 8,4 km/h (2 Bft) 97,87 %
23.09.2017 04:50 12,8 C 12,2 C 11,7 C 96 % 15 lf 1022,7 hPa 0,0 l/m 0 min 0 min 0 W/m 6,3 km/h (2 Bft) 93,62 %
23.09.2017 04:52 12,8 C 12,2 C 11,7 C 96 % 15 lf 1022,7 hPa 0,0 l/m 0 min 0 min 0 W/m 6,3 km/h (2 Bft) 97,87 %
23.09.2017 04:54 12,8 C 12,2 C 11,7 C 96 % 15 lf 1022,8 hPa 0,0 l/m 0 min 0 min 0 W/m 6,3 km/h (2 Bft) 97,87 %
23.09.2017 04:56 12,7 C 12,2 C 11,7 C 96 % 15 lf 1022,8 hPa 0,0 l/m 0 min 0 min 0 W/m 8,4 km/h (2 Bft) 97,87 %
23.09.2017 04:58 12,7 C 12,2 C 11,1 C 96 % 15 lf 1022,8 hPa 0,0 l/m 0 min 0 min 0 W/m 6,3 km/h (2 Bft) 93,48 %
23.09.2017 05:00 12,7 C 12,2 C 11,1 C 96 % 15 lf 1022,9 hPa 0,0 l/m 0 min 0 min 0 W/m 8,4 km/h (2 Bft) 97,87 %
23.09.2017 05:02 12,7 C 12,2 C 11,1 C 96 % 15 lf 1022,8 hPa 0,0 l/m 0 min 0 min 0 W/m 10,5 km/h (2 Bft) 95,74 %
23.09.2017 05:04 12,7 C 12,2 C 11,1 C 96 % 15 lf 1022,7 hPa 0,0 l/m 0 min 0 min 0 W/m 10,5 km/h (2 Bft) 95,74 %
23.09.2017 05:06 12,7 C 12,2 C 11,1 C 96 % 15 lf 1022,8 hPa 0,0 l/m 0 min 0 min 0 W/m 6,3 km/h (2 Bft) 97,87 %
23.09.2017 05:08 12,7 C 11,7 C 11,1 C 97 % 15 lf 1022,8 hPa 0,0 l/m 0 min 0 min 0 W/m 8,4 km/h (2 Bft) 95,65 %
23.09.2017 05:10 12,7 C 11,7 C 11,1 C 97 % 15 lf 1022,8 hPa 0,0 l/m 0 min 0 min 0 W/m 8,4 km/h (2 Bft) 95,74 %
23.09.2017 05:12 12,6 C 11,7 C 11,1 C 97 % 15 lf 1022,8 hPa 0,0 l/m 0 min 0 min 0 W/m 10,5 km/h (2 Bft) 91,49 %
23.09.2017 05:14 12,6 C 11,7 C 11,1 C 97 % 15 lf 1022,9 hPa 0,0 l/m 0 min 0 min 0 W/m 8,4 km/h (2 Bft) 95,74 %
23.09.2017 05:16 12,6 C 11,7 C 11,1 C 97 % 15 lf 1022,8 hPa 0,0 l/m 0 min 0 min 0 W/m 6,3 km/h (2 Bft) 100,00 %
23.09.2017 05:18 12,5 C 11,7 C 11,1 C 97 % 15 lf 1022,9 hPa 0,0 l/m 0 min 0 min 0 W/m 4,2 km/h (1 Bft) 97,87 %
23.09.2017 05:20 12,5 C 11,7 C 11,1 C 97 % 15 lf 1022,8 hPa 0,0 l/m 0 min 0 min 0 W/m 6,3 km/h (2 Bft) 97,87 %
23.09.2017 05:22 12,5 C 11,7 C 11,1 C 97 % 15 lf 1022,8 hPa 0,0 l/m 0 min 0 min 0 W/m 4,2 km/h (1 Bft) 97,83 %
23.09.2017 05:24 12,4 C 11,7 C 11,1 C 96 % 15 lf 1022,8 hPa 0,0 l/m 0 min 0 min 0 W/m 4,2 km/h (1 Bft) 95,74 %
23.09.2017 05:26 12,4 C 11,7 C 11,1 C 96 % 15 lf 1022,8 hPa 0,0 l/m 0 min 0 min 0 W/m 4,2 km/h (1 Bft) 97,87 %
23.09.2017 05:28 12,4 C 11,7 C 11,1 C 97 % 15 lf 1022,8 hPa 0,0 l/m 0 min 0 min 0 W/m 6,3 km/h (2 Bft) 97,87 %
23.09.2017 05:30 12,4 C 11,7 C 11,1 C 97 % 15 lf 1022,8 hPa 0,0 l/m 0 min 0 min 0 W/m 8,4 km/h (2 Bft) 95,74 %
23.09.2017 05:32 12,4 C 11,7 C 11,1 C 97 % 15 lf 1022,8 hPa 0,0 l/m 0 min 0 min 0 W/m 8,4 km/h (2 Bft) 97,83 %
23.09.2017 05:34 12,4 C 11,7 C 11,1 C 97 % 15 lf 1022,7 hPa 0,0 l/m 0 min 0 min 0 W/m 8,4 km/h (2 Bft) 100,00 %
23.09.2017 05:35 12,4 C 11,7 C 11,1 C 97 % 15 lf 1022,7 hPa 0,0 l/m 0 min 0 min 0 W/m 8,4 km/h (2 Bft) 100,00 %
23.09.2017 05:42 12,3 C 11,7 C 11,1 C 97 % 15 lf 1022,8 hPa 0,0 l/m 0 min 0 min 0 W/m 8,4 km/h (2 Bft) 100,00 %
23.09.2017 05:44 12,3 C 11,7 C 11,1 C 97 % 15 lf 1022,8 hPa 0,0 l/m 0 min 0 min 0 W/m 8,4 km/h (2 Bft) 97,87 %
23.09.2017 05:46 12,3 C 11,7 C 11,1 C 97 % 15 lf 1022,8 hPa 0,0 l/m 0 min 0 min 0 W/m 8,4 km/h (2 Bft) 100,00 %
23.09.2017 05:48 12,3 C 11,7 C 11,1 C 97 % 15 lf 1022,8 hPa 0,0 l/m 0 min 0 min 0 W/m 10,5 km/h (2 Bft) 93,62 %
23.09.2017 05:50 12,3 C 11,7 C 11,1 C 97 % 15 lf 1022,7 hPa 0,0 l/m 0 min 0 min 0 W/m 12,6 km/h (3 Bft) 100,00 %
23.09.2017 05:52 12,3 C 11,7 C 11,1 C 97 % 15 lf 1022,8 hPa 0,0 l/m 0 min 0 min 0 W/m 10,5 km/h (2 Bft) 97,87 %
23.09.2017 05:54 12,3 C 11,7 C 11,1 C 97 % 15 lf 1022,7 hPa 0,0 l/m 0 min 0 min 0 W/m 4,2 km/h (1 Bft) 97,83 %
23.09.2017 05:56 12,3 C 11,7 C 11,1 C 97 % 15 lf 1022,7 hPa 0,0 l/m 0 min 0 min 0 W/m 6,3 km/h (2 Bft) 100,00 %
23.09.2017 05:58 12,3 C 11,7 C 11,1 C 97 % 15 lf 1022,7 hPa 0,0 l/m 0 min 0 min 0 W/m 4,2 km/h (1 Bft) 100,00 %
23.09.2017 06:00 12,3 C 11,7 C 11,1 C 97 % 15 lf 1022,7 hPa 0,0 l/m 0 min 0 min 0 W/m 4,2 km/h (1 Bft) 100,00 %
23.09.2017 06:02 12,3 C 11,7 C 11,1 C 97 % 15 lf 1022,7 hPa 0,0 l/m 0 min 0 min 0 W/m 6,3 km/h (2 Bft) 100,00 %
23.09.2017 06:04 12,3 C 11,7 C 11,1 C 97 % 15 lf 1022,7 hPa 0,0 l/m 0 min 0 min 0 W/m 4,2 km/h (1 Bft) 95,74 %
23.09.2017 06:06 12,3 C 11,7 C 11,1 C 97 % 15 lf 1022,8 hPa 0,0 l/m 0 min 0 min 0 W/m 4,2 km/h (1 Bft) 95,65 %
23.09.2017 06:10 12,2 C 11,7 C 11,1 C 97 % 15 lf 1022,7 hPa 0,0 l/m 0 min 0 min 0 W/m 6,3 km/h (2 Bft) 96,34 %
23.09.2017 06:12 12,2 C 11,7 C 11,1 C 97 % 15 lf 1022,7 hPa 0,0 l/m 0 min 0 min 0 W/m 4,2 km/h (1 Bft) 97,87 %
23.09.2017 06:14 12,2 C 11,7 C 11,1 C 97 % 15 lf 1022,8 hPa 0,0 l/m 0 min 0 min 0 W/m 2,1 km/h (1 Bft) 97,87 %
23.09.2017 06:16 12,2 C 11,7 C 11,1 C 97 % 15 lf 1022,8 hPa 0,0 l/m 0 min 0 min 0 W/m 4,2 km/h (1 Bft) 95,74 %
23.09.2017 06:18 12,2 C 11,7 C 11,1 C 97 % 15 lf 1022,8 hPa 0,0 l/m 0 min 0 min 0 W/m 4,2 km/h (1 Bft) 97,87 %
23.09.2017 06:20 12,2 C 11,7 C 11,1 C 97 % 15 lf 1022,7 hPa 0,0 l/m 0 min 0 min 0 W/m 2,1 km/h (1 Bft) 95,74 %
23.09.2017 06:22 12,2 C 11,7 C 11,1 C 97 % 15 lf 1022,7 hPa 0,0 l/m 0 min 0 min 0 W/m 2,1 km/h (1 Bft) 93,48 %
23.09.2017 06:24 12,2 C 11,7 C 11,1 C 97 % 15 lf 1022,7 hPa 0,0 l/m 0 min 0 min 0 W/m 2,1 km/h (1 Bft) 97,87 %
23.09.2017 06:26 12,2 C 11,7 C 11,1 C 97 % 15 lf 1022,7 hPa 0,0 l/m 0 min 0 min 0 W/m 2,1 km/h (1 Bft) 97,87 %
23.09.2017 06:28 12,2 C 11,7 C 11,1 C 97 % 15 lf 1022,8 hPa 0,0 l/m 0 min 0 min 0 W/m 2,1 km/h (1 Bft) 97,87 %
23.09.2017 06:30 12,2 C 11,7 C 11,1 C 97 % 15 lf 1022,8 hPa 0,0 l/m 0 min 0 min 0 W/m 2,1 km/h (1 Bft) 100,00 %
23.09.2017 06:32 12,2 C 11,7 C 11,1 C 97 % 15 lf 1022,8 hPa 0,0 l/m 0 min 0 min 0 W/m 2,1 km/h (1 Bft) 97,83 %
23.09.2017 06:34 12,2 C 11,7 C 11,1 C 97 % 15 lf 1022,7 hPa 0,0 l/m 0 min 0 min 0 W/m 0,0 km/h (0 Bft) 97,87 %
23.09.2017 06:36 12,2 C 11,7 C 11,1 C 97 % 15 lf 1022,7 hPa 0,0 l/m 0 min 0 min 0 W/m 2,1 km/h (1 Bft) 93,62 %
23.09.2017 06:38 12,2 C 11,7 C 10,6 C 97 % 15 lf 1022,7 hPa 0,0 l/m 0 min 0 min 0 W/m 4,2 km/h (1 Bft) 97,87 %
23.09.2017 06:40 12,2 C 11,7 C 10,6 C 97 % 15 lf 1022,7 hPa 0,0 l/m 0 min 0 min 0 W/m 2,1 km/h (1 Bft) 95,74 %
23.09.2017 06:42 12,2 C 11,7 C 11,1 C 97 % 15 lf 1022,8 hPa 0,0 l/m 0 min 0 min 0 W/m 2,1 km/h (1 Bft) 97,87 %
23.09.2017 06:44 12,2 C 11,7 C 11,1 C 97 % 15 lf 1022,8 hPa 0,0 l/m 0 min 0 min 0 W/m 2,1 km/h (1 Bft) 97,83 %
23.09.2017 06:46 12,2 C 11,7 C 11,1 C 97 % 15 lf 1022,8 hPa 0,0 l/m 0 min 0 min 0 W/m 4,2 km/h (1 Bft) 95,74 %
23.09.2017 06:48 12,2 C 11,7 C 11,1 C 97 % 15 lf 1022,8 hPa 0,0 l/m 0 min 0 min 0 W/m 2,1 km/h (1 Bft) 97,87 %
23.09.2017 06:50 12,2 C 11,7 C 11,1 C 97 % 15 lf 1022,8 hPa 0,0 l/m 0 min 0 min 0 W/m 4,2 km/h (1 Bft) 95,74 %
23.09.2017 06:52 12,2 C 11,7 C 11,1 C 97 % 15 lf 1022,9 hPa 0,0 l/m 0 min 0 min 0 W/m 4,2 km/h (1 Bft) 97,87 %
23.09.2017 06:54 12,2 C 11,7 C 11,1 C 97 % 15 lf 1022,9 hPa 0,0 l/m 0 min 0 min 0 W/m 4,2 km/h (1 Bft) 97,87 %
23.09.2017 06:56 12,2 C 11,7 C 11,1 C 97 % 15 lf 1022,9 hPa 0,0 l/m 0 min 0 min 0 W/m 4,2 km/h (1 Bft) 93,48 %
23.09.2017 06:58 12,2 C 11,7 C 11,1 C 97 % 15 lf 1022,9 hPa 0,0 l/m 0 min 0 min 0 W/m 2,1 km/h (1 Bft) 97,87 %
23.09.2017 07:00 12,2 C 11,7 C 11,1 C 97 % 15 lf 1022,9 hPa 0,0 l/m 0 min 0 min 0 W/m 2,1 km/h (1 Bft) 95,74 %
23.09.2017 07:02 12,2 C 11,7 C 11,1 C 97 % 15 lf 1022,9 hPa 0,0 l/m 0 min 0 min 0 W/m 2,1 km/h (1 Bft) 97,87 %
23.09.2017 07:04 12,2 C 11,7 C 11,1 C 97 % 15 lf 1023,0 hPa 0,0 l/m 0 min 0 min 0 W/m 0,0 km/h (0 Bft) 93,62 %
23.09.2017 07:06 12,2 C 11,7 C 11,1 C 97 % 15 lf 1022,9 hPa 0,0 l/m 0 min 0 min 0 W/m 0,0 km/h (0 Bft) 93,62 %
23.09.2017 07:08 12,2 C 11,7 C 11,1 C 97 % 15 lf 1022,9 hPa 0,0 l/m 0 min 0 min 0 W/m 0,0 km/h (0 Bft) 95,65 %
23.09.2017 07:10 12,2 C 11,7 C 11,1 C 97 % 15 lf 1022,9 hPa 0,0 l/m 0 min 0 min 0 W/m 0,0 km/h (0 Bft) 93,62 %
23.09.2017 07:12 12,2 C 11,7 C 11,1 C 97 % 15 lf 1022,9 hPa 0,0 l/m 0 min 0 min 0 W/m 0,0 km/h (0 Bft) 87,23 %
23.09.2017 07:14 12,2 C 11,7 C 11,1 C 97 % 15 lf 1022,9 hPa 0,0 l/m 0 min 0 min 0 W/m 0,0 km/h (0 Bft) 93,62 %
23.09.2017 07:16 12,1 C 11,7 C 11,1 C 97 % 15 lf 1022,9 hPa 0,0 l/m 0 min 0 min 0 W/m 0,0 km/h (0 Bft) 91,49 %
23.09.2017 07:18 12,2 C 11,7 C 11,1 C 97 % 15 lf 1022,9 hPa 0,0 l/m 0 min 0 min 0 W/m 2,1 km/h (1 Bft) 94,55 %
23.09.2017 07:20 12,2 C 11,7 C 11,1 C 97 % 15 lf 1022,9 hPa 0,0 l/m 0 min 0 min 3 W/m 2,1 km/h (1 Bft) 93,62 %
23.09.2017 07:22 12,2 C 11,7 C 11,1 C 97 % 15 lf 1022,9 hPa 0,0 l/m 0 min 0 min 5 W/m 4,2 km/h (1 Bft) 91,30 %
23.09.2017 07:24 12,2 C 11,7 C 11,1 C 97 % 15 lf 1022,9 hPa 0,0 l/m 0 min 0 min 5 W/m 4,2 km/h (1 Bft) 93,62 %
23.09.2017 07:26 12,2 C 11,7 C 11,1 C 97 % 15 lf 1022,9 hPa 0,0 l/m 0 min 0 min 5 W/m 4,2 km/h (1 Bft) 93,62 %
23.09.2017 07:28 12,2 C 11,7 C 11,1 C 97 % 15 lf 1022,9 hPa 0,0 l/m 0 min 0 min 5 W/m 2,1 km/h (1 Bft) 93,62 %
23.09.2017 07:30 12,2 C 11,7 C 11,1 C 97 % 15 lf 1022,9 hPa 0,0 l/m 0 min 0 min 7 W/m 4,2 km/h (1 Bft) 91,49 %
23.09.2017 07:32 12,2 C 11,7 C 10,6 C 97 % 15 lf 1022,9 hPa 0,0 l/m 0 min 0 min 8 W/m 2,1 km/h (1 Bft) 93,62 %
23.09.2017 07:34 12,2 C 11,7 C 10,6 C 97 % 15 lf 1022,9 hPa 0,0 l/m 0 min 0 min 9 W/m 0,0 km/h (0 Bft) 95,65 %
23.09.2017 07:36 12,2 C 11,7 C 10,6 C 97 % 15 lf 1022,9 hPa 0,0 l/m 0 min 0 min 9 W/m 0,0 km/h (0 Bft) 93,62 %
23.09.2017 07:38 12,2 C 11,7 C 10,6 C 97 % 15 lf 1023,0 hPa 0,0 l/m 0 min 0 min 9 W/m 0,0 km/h (0 Bft) 97,87 %
23.09.2017 07:40 12,1 C 11,7 C 10,6 C 97 % 15 lf 1023,0 hPa 0,0 l/m 0 min 0 min 10 W/m 0,0 km/h (0 Bft) 95,74 %
23.09.2017 07:42 12,1 C 11,7 C 10,6 C 97 % 15 lf 1023,1 hPa 0,0 l/m 0 min 0 min 11 W/m 0,0 km/h (0 Bft) 93,62 %
23.09.2017 07:44 12,1 C 11,7 C 10,6 C 97 % 15 lf 1023,0 hPa 0,0 l/m 0 min 0 min 12 W/m 2,1 km/h (1 Bft) 95,74 %
23.09.2017 07:46 12,1 C 11,7 C 11,1 C 97 % 15 lf 1023,0 hPa 0,0 l/m 0 min 0 min 13 W/m 2,1 km/h (1 Bft) 91,30 %
23.09.2017 07:48 12,1 C 11,7 C 11,1 C 97 % 15 lf 1023,0 hPa 0,0 l/m 0 min 0 min 15 W/m 0,0 km/h (0 Bft) 95,74 %
23.09.2017 07:50 12,1 C 11,7 C 11,1 C 97 % 15 lf 1023,0 hPa 0,0 l/m 0 min 0 min 17 W/m 2,1 km/h (1 Bft) 97,87 %
23.09.2017 07:52 12,1 C 11,7 C 11,1 C 97 % 15 lf 1023,0 hPa 0,0 l/m 0 min 0 min 19 W/m 4,2 km/h (1 Bft) 93,62 %
23.09.2017 07:54 12,1 C 11,7 C 11,1 C 97 % 15 lf 1023,0 hPa 0,0 l/m 0 min 0 min 19 W/m 4,2 km/h (1 Bft) 95,74 %
23.09.2017 07:56 12,1 C 11,7 C 11,1 C 97 % 15 lf 1023,1 hPa 0,0 l/m 0 min 0 min 20 W/m 4,2 km/h (1 Bft) 93,62 %
23.09.2017 07:58 12,1 C 11,7 C 11,1 C 97 % 15 lf 1023,0 hPa 0,0 l/m 0 min 0 min 25 W/m 6,3 km/h (2 Bft) 97,83 %
23.09.2017 08:00 12,1 C 11,7 C 11,1 C 97 % 15 lf 1023,1 hPa 0,0 l/m 0 min 0 min 27 W/m 4,2 km/h (1 Bft) 97,87 %
23.09.2017 08:02 12,1 C 11,7 C 11,1 C 97 % 15 lf 1023,1 hPa 0,0 l/m 0 min 0 min 24 W/m 4,2 km/h (1 Bft) 95,74 %
23.09.2017 08:04 12,1 C 11,7 C 11,1 C 97 % 15 lf 1023,0 hPa 0,0 l/m 0 min 0 min 20 W/m 4,2 km/h (1 Bft) 97,87 %
23.09.2017 08:06 12,1 C 11,7 C 11,1 C 97 % 15 lf 1023,0 hPa 0,0 l/m 0 min 0 min 19 W/m 4,2 km/h (1 Bft) 97,87 %
23.09.2017 08:08 12,2 C 11,7 C 11,1 C 97 % 15 lf 1023,1 hPa 0,0 l/m 0 min 0 min 19 W/m 2,1 km/h (1 Bft) 97,83 %
23.09.2017 08:10 12,1 C 11,7 C 11,1 C 98 % 15 lf 1023,1 hPa 0,0 l/m 0 min 0 min 17 W/m 6,3 km/h (2 Bft) 100,00 %
23.09.2017 08:12 12,1 C 11,7 C 11,1 C 98 % 15 lf 1023,1 hPa 0,0 l/m 0 min 0 min 16 W/m 6,3 km/h (2 Bft) 100,00 %
23.09.2017 08:14 12,1 C 11,7 C 11,1 C 98 % 15 lf 1023,2 hPa 0,0 l/m 0 min 0 min 16 W/m 4,2 km/h (1 Bft) 97,87 %
23.09.2017 08:16 12,1 C 11,7 C 11,1 C 98 % 15 lf 1023,2 hPa 0,0 l/m 0 min 0 min 17 W/m 4,2 km/h (1 Bft) 97,87 %
23.09.2017 08:18 12,1 C 11,7 C 11,1 C 98 % 15 lf 1023,2 hPa 0,0 l/m 0 min 0 min 16 W/m 6,3 km/h (2 Bft) 97,87 %
23.09.2017 08:20 12,1 C 11,7 C 11,1 C 98 % 15 lf 1023,2 hPa 0,0 l/m 0 min 0 min 16 W/m 4,2 km/h (1 Bft) 97,83 %
23.09.2017 08:22 12,1 C 11,7 C 11,1 C 98 % 15 lf 1023,2 hPa 0,0 l/m 0 min 0 min 16 W/m 4,2 km/h (1 Bft) 100,00 %
23.09.2017 08:24 12,1 C 11,7 C 11,1 C 98 % 15 lf 1023,2 hPa 0,0 l/m 0 min 0 min 18 W/m 6,3 km/h (2 Bft) 100,00 %
23.09.2017 08:26 12,1 C 11,7 C 11,1 C 98 % 15 lf 1023,2 hPa 0,0 l/m 0 min 0 min 19 W/m 4,2 km/h (1 Bft) 97,87 %
23.09.2017 08:28 12,1 C 11,7 C 11,1 C 98 % 15 lf 1023,2 hPa 0,0 l/m 0 min 0 min 19 W/m 4,2 km/h (1 Bft) 95,74 %
23.09.2017 08:30 12,1 C 11,7 C 11,1 C 98 % 15 lf 1023,2 hPa 0,0 l/m 0 min 0 min 22 W/m 4,2 km/h (1 Bft) 100,00 %
23.09.2017 08:32 12,1 C 11,7 C 11,1 C 98 % 15 lf 1023,2 hPa 0,0 l/m 0 min 0 min 24 W/m 4,2 km/h (1 Bft) 100,00 %
23.09.2017 08:34 12,1 C 11,7 C 11,1 C 98 % 15 lf 1023,3 hPa 0,0 l/m 0 min 0 min 25 W/m 2,1 km/h (1 Bft) 100,00 %
23.09.2017 08:36 12,1 C 11,7 C 11,1 C 98 % 15 lf 1023,3 hPa 0,0 l/m 0 min 0 min 24 W/m 2,1 km/h (1 Bft) 100,00 %
23.09.2017 08:38 12,1 C 11,7 C 11,1 C 98 % 15 lf 1023,3 hPa 0,0 l/m 0 min 0 min 23 W/m 4,2 km/h (1 Bft) 97,87 %
23.09.2017 08:40 12,0 C 11,7 C 11,1 C 98 % 15 lf 1023,2 hPa 0,0 l/m 0 min 0 min 25 W/m 4,2 km/h (1 Bft) 97,87 %
23.09.2017 08:42 12,0 C 11,7 C 11,1 C 98 % 15 lf 1023,2 hPa 0,0 l/m 0 min 0 min 25 W/m 4,2 km/h (1 Bft) 97,87 %
23.09.2017 08:44 12,0 C 11,7 C 11,1 C 98 % 15 lf 1023,3 hPa 0,0 l/m 0 min 0 min 26 W/m 4,2 km/h (1 Bft) 97,83 %
23.09.2017 08:46 12,1 C 11,7 C 11,1 C 98 % 15 lf 1023,2 hPa 0,0 l/m 0 min 0 min 28 W/m 4,2 km/h (1 Bft) 100,00 %
23.09.2017 08:48 12,1 C 11,7 C 11,1 C 98 % 15 lf 1023,2 hPa 0,0 l/m 0 min 0 min 28 W/m 6,3 km/h (2 Bft) 97,87 %
23.09.2017 08:50 12,1 C 12,2 C 11,1 C 98 % 15 lf 1023,2 hPa 0,0 l/m 0 min 0 min 29 W/m 8,4 km/h (2 Bft) 97,87 %
23.09.2017 08:52 12,1 C 11,7 C 11,1 C 98 % 15 lf 1023,2 hPa 0,0 l/m 0 min 0 min 33 W/m 6,3 km/h (2 Bft) 95,74 %
23.09.2017 08:54 12,1 C 11,7 C 11,1 C 98 % 15 lf 1023,3 hPa 0,0 l/m 0 min 0 min 35 W/m 10,5 km/h (2 Bft) 95,74 %
23.09.2017 08:56 12,1 C 11,7 C 11,1 C 98 % 15 lf 1023,3 hPa 0,0 l/m 0 min 0 min 37 W/m 8,4 km/h (2 Bft) 93,48 %
23.09.2017 08:58 12,1 C 11,7 C 11,1 C 98 % 15 lf 1023,3 hPa 0,0 l/m 0 min 0 min 40 W/m 6,3 km/h (2 Bft) 93,62 %
23.09.2017 09:00 12,1 C 12,2 C 11,1 C 98 % 15 lf 1023,3 hPa 0,0 l/m 0 min 0 min 39 W/m 6,3 km/h (2 Bft) 95,74 %
23.09.2017 09:02 12,1 C 12,2 C 11,1 C 98 % 15 lf 1023,3 hPa 0,0 l/m 0 min 0 min 45 W/m 6,3 km/h (2 Bft) 95,74 %
23.09.2017 09:04 12,1 C 12,2 C 11,7 C 98 % 15 lf 1023,4 hPa 0,0 l/m 0 min 0 min 58 W/m 6,3 km/h (2 Bft) 95,74 %
23.09.2017 09:06 12,1 C 12,2 C 11,7 C 98 % 15 lf 1023,3 hPa 0,0 l/m 0 min 0 min 64 W/m 6,3 km/h (2 Bft) 93,62 %
23.09.2017 09:08 12,1 C 12,2 C 11,7 C 98 % 15 lf 1023,3 hPa 0,0 l/m 0 min 0 min 72 W/m 6,3 km/h (2 Bft) 95,65 %
23.09.2017 09:10 12,1 C 12,2 C 11,7 C 98 % 15 lf 1023,3 hPa 0,0 l/m 0 min 0 min 81 W/m 4,2 km/h (1 Bft) 91,49 %
23.09.2017 09:12 12,1 C 12,8 C 11,7 C 98 % 15 lf 1023,3 hPa 0,0 l/m 0 min 0 min 83 W/m 2,1 km/h (1 Bft) 95,74 %
23.09.2017 09:14 12,2 C 12,8 C 11,7 C 98 % 15 lf 1023,3 hPa 0,0 l/m 0 min 0 min 88 W/m 6,3 km/h (2 Bft) 93,62 %
23.09.2017 09:16 12,2 C 12,8 C 12,2 C 98 % 15 lf 1023,4 hPa 0,0 l/m 0 min 0 min 87 W/m 6,3 km/h (2 Bft) 95,74 %
23.09.2017 09:18 12,2 C 12,8 C 12,2 C 98 % 15 lf 1023,4 hPa 0,0 l/m 0 min 0 min 87 W/m 4,2 km/h (1 Bft) 95,74 %
23.09.2017 09:20 12,2 C 12,8 C 12,2 C 98 % 15 lf 1023,4 hPa 0,0 l/m 0 min 0 min 87 W/m 4,2 km/h (1 Bft) 95,65 %
23.09.2017 09:22 12,3 C 12,8 C 12,2 C 98 % 15 lf 1023,4 hPa 0,0 l/m 0 min 0 min 86 W/m 4,2 km/h (1 Bft) 97,87 %
23.09.2017 09:24 12,3 C 12,8 C 12,2 C 98 % 15 lf 1023,4 hPa 0,0 l/m 0 min 0 min 86 W/m 6,3 km/h (2 Bft) 97,87 %
23.09.2017 09:26 12,3 C 12,8 C 12,2 C 98 % 15 lf 1023,4 hPa 0,0 l/m 0 min 0 min 91 W/m 6,3 km/h (2 Bft) 95,74 %
23.09.2017 09:28 12,3 C 12,8 C 12,2 C 98 % 15 lf 1023,4 hPa 0,0 l/m 0 min 0 min 91 W/m 4,2 km/h (1 Bft) 95,74 %
23.09.2017 09:30 12,4 C 12,8 C 12,2 C 98 % 15 lf 1023,4 hPa 0,0 l/m 0 min 0 min 90 W/m 6,3 km/h (2 Bft) 97,87 %
23.09.2017 09:32 12,4 C 12,8 C 12,2 C 98 % 15 lf 1023,4 hPa 0,0 l/m 0 min 0 min 91 W/m 8,4 km/h (2 Bft) 97,83 %
23.09.2017 09:34 12,4 C 12,8 C 12,2 C 98 % 15 lf 1023,4 hPa 0,0 l/m 0 min 0 min 92 W/m 10,5 km/h (2 Bft) 95,74 %
23.09.2017 09:36 12,4 C 12,8 C 12,2 C 98 % 15 lf 1023,4 hPa 0,0 l/m 0 min 0 min 93 W/m 6,3 km/h (2 Bft) 95,74 %
23.09.2017 09:38 12,4 C 12,8 C 12,2 C 98 % 15 lf 1023,5 hPa 0,0 l/m 0 min 0 min 94 W/m 4,2 km/h (1 Bft) 97,87 %
23.09.2017 09:40 12,4 C 12,8 C 12,2 C 98 % 15 lf 1023,5 hPa 0,0 l/m 0 min 0 min 90 W/m 4,2 km/h (1 Bft) 95,74 %
23.09.2017 09:42 12,4 C 12,8 C 12,2 C 98 % 15 lf 1023,6 hPa 0,0 l/m 0 min 0 min 91 W/m 6,3 km/h (2 Bft) 93,48 %
23.09.2017 09:44 12,4 C 12,8 C 12,2 C 98 % 15 lf 1023,6 hPa 0,0 l/m 0 min 0 min 79 W/m 4,2 km/h (1 Bft) 93,62 %
23.09.2017 09:46 12,4 C 12,8 C 12,2 C 98 % 15 lf 1023,6 hPa 0,0 l/m 0 min 0 min 67 W/m 8,4 km/h (2 Bft) 100,00 %
23.09.2017 09:48 12,4 C 12,8 C 12,2 C 98 % 15 lf 1023,6 hPa 0,0 l/m 0 min 0 min 65 W/m 6,3 km/h (2 Bft) 100,00 %
23.09.2017 09:50 12,4 C 12,8 C 12,2 C 98 % 15 lf 1023,7 hPa 0,0 l/m 0 min 0 min 69 W/m 6,3 km/h (2 Bft) 95,74 %
23.09.2017 09:52 12,5 C 12,8 C 12,2 C 98 % 15 lf 1023,6 hPa 0,0 l/m 0 min 0 min 72 W/m 2,1 km/h (1 Bft) 100,00 %
23.09.2017 09:54 12,5 C 12,8 C 12,2 C 98 % 15 lf 1023,7 hPa 0,0 l/m 0 min 0 min 74 W/m 6,3 km/h (2 Bft) 97,83 %
23.09.2017 09:56 12,5 C 12,8 C 12,2 C 98 % 15 lf 1023,7 hPa 0,0 l/m 0 min 0 min 84 W/m 6,3 km/h (2 Bft) 97,87 %
23.09.2017 09:58 12,5 C 12,8 C 12,2 C 98 % 15 lf 1023,7 hPa 0,0 l/m 0 min 0 min 84 W/m 4,2 km/h (1 Bft) 97,87 %
23.09.2017 10:00 12,5 C 12,8 C 12,2 C 98 % 15 lf 1023,7 hPa 0,0 l/m 0 min 0 min 97 W/m 6,3 km/h (2 Bft) 95,74 %
23.09.2017 10:02 12,6 C 12,8 C 12,2 C 98 % 15 lf 1023,7 hPa 0,0 l/m 0 min 0 min 102 W/m 2,1 km/h (1 Bft) 97,87 %
23.09.2017 10:04 12,6 C 12,8 C 12,2 C 98 % 15 lf 1023,7 hPa 0,0 l/m 0 min 0 min 93 W/m 6,3 km/h (2 Bft) 97,87 %
23.09.2017 10:06 12,6 C 13,3 C 12,2 C 98 % 15 lf 1023,7 hPa 0,0 l/m 0 min 0 min 84 W/m 4,2 km/h (1 Bft) 100,00 %
23.09.2017 10:08 12,6 C 13,3 C 12,2 C 98 % 15 lf 1023,8 hPa 0,0 l/m 0 min 0 min 86 W/m 4,2 km/h (1 Bft) 97,87 %
23.09.2017 10:10 12,7 C 13,3 C 12,2 C 98 % 15 lf 1023,7 hPa 0,0 l/m 0 min 0 min 91 W/m 4,2 km/h (1 Bft) 97,87 %
23.09.2017 10:12 12,7 C 13,3 C 12,2 C 98 % 14 lf 1023,8 hPa 0,0 l/m 0 min 0 min 95 W/m 6,3 km/h (2 Bft) 97,87 %
23.09.2017 10:14 12,7 C 13,3 C 12,8 C 98 % 14 lf 1023,8 hPa 0,0 l/m 0 min 0 min 100 W/m 6,3 km/h (2 Bft) 95,74 %
23.09.2017 10:16 12,7 C 13,3 C 12,8 C 98 % 14 lf 1023,9 hPa 0,0 l/m 0 min 0 min 106 W/m 4,2 km/h (1 Bft) 95,74 %
23.09.2017 10:18 12,7 C 13,3 C 12,8 C 98 % 14 lf 1023,9 hPa 0,0 l/m 0 min 0 min 109 W/m 2,1 km/h (1 Bft) 97,83 %
23.09.2017 10:20 12,7 C 13,3 C 12,8 C 98 % 12 lf 1023,9 hPa 0,0 l/m 0 min 0 min 147 W/m 4,2 km/h (1 Bft) 93,62 %
23.09.2017 10:22 12,7 C 13,9 C 12,8 C 98 % 12 lf 1023,9 hPa 0,0 l/m 0 min 0 min 186 W/m 6,3 km/h (2 Bft) 97,87 %
23.09.2017 10:24 12,8 C 14,4 C 13,3 C 98 % 11 lf 1023,9 hPa 0,0 l/m 0 min 0 min 198 W/m 2,1 km/h (1 Bft) 97,87 %
23.09.2017 10:26 12,8 C 14,4 C 13,3 C 98 % 10 lf 1023,9 hPa 0,0 l/m 0 min 0 min 189 W/m 4,2 km/h (1 Bft) 97,87 %
23.09.2017 10:28 12,9 C 14,4 C 13,3 C 98 % 9 lf 1024,0 hPa 0,0 l/m 0 min 0 min 168 W/m 2,1 km/h (1 Bft) 95,74 %
23.09.2017 10:30 12,9 C 14,4 C 13,3 C 98 % 8 lf 1023,9 hPa 0,0 l/m 0 min 0 min 163 W/m 2,1 km/h (1 Bft) 97,83 %
23.09.2017 10:32 13,0 C 14,4 C 13,3 C 98 % 6 lf 1024,0 hPa 0,0 l/m 0 min 0 min 170 W/m 2,1 km/h (1 Bft) 93,62 %
23.09.2017 10:34 13,1 C 15,0 C 13,9 C 98 % 4 lf 1024,0 hPa 0,0 l/m 0 min 0 min 187 W/m 4,2 km/h (1 Bft) 97,87 %
23.09.2017 10:36 13,1 C 15,0 C 13,9 C 98 % 3 lf 1024,0 hPa 0,0 l/m 0 min 0 min 201 W/m 6,3 km/h (2 Bft) 97,87 %
23.09.2017 10:38 13,1 C 15,0 C 13,9 C 99 % 3 lf 1024,0 hPa 0,0 l/m 0 min 0 min 201 W/m 4,2 km/h (1 Bft) 97,87 %
23.09.2017 10:40 13,2 C 15,6 C 13,9 C 99 % 2 lf 1023,9 hPa 0,0 l/m 0 min 0 min 203 W/m 4,2 km/h (1 Bft) 91,49 %
23.09.2017 10:42 13,2 C 15,6 C 13,9 C 99 % 2 lf 1023,9 hPa 0,0 l/m 0 min 0 min 227 W/m 6,3 km/h (2 Bft) 97,83 %
23.09.2017 10:44 13,2 C 16,1 C 13,9 C 99 % 1 lf 1024,0 hPa 0,0 l/m 2 min 0 min 248 W/m 6,3 km/h (2 Bft) 100,00 %
23.09.2017 10:46 13,3 C 16,1 C 14,4 C 99 % 1 lf 1023,9 hPa 0,0 l/m 2 min 0 min 244 W/m 6,3 km/h (2 Bft) 97,87 %
23.09.2017 10:48 13,3 C 16,7 C 13,9 C 98 % 0 lf 1024,0 hPa 0,0 l/m 0 min 0 min 218 W/m 6,3 km/h (2 Bft) 95,74 %
23.09.2017 10:50 13,4 C 16,1 C 13,9 C 98 % 0 lf 1024,0 hPa 0,0 l/m 0 min 0 min 203 W/m 4,2 km/h (1 Bft) 95,74 %
23.09.2017 10:52 13,4 C 16,7 C 13,9 C 98 % 0 lf 1024,0 hPa 0,0 l/m 0 min 0 min 222 W/m 6,3 km/h (2 Bft) 95,65 %
23.09.2017 10:54 13,3 C 16,7 C 13,9 C 98 % 0 lf 1023,9 hPa 0,0 l/m 2 min 0 min 242 W/m 4,2 km/h (1 Bft) 93,62 %
23.09.2017 10:56 13,3 C 16,1 C 13,9 C 98 % 0 lf 1023,9 hPa 0,0 l/m 0 min 0 min 212 W/m 2,1 km/h (1 Bft) 95,74 %
23.09.2017 10:58 13,4 C 16,1 C 13,9 C 98 % 0 lf 1023,9 hPa 0,0 l/m 0 min 0 min 207 W/m 4,2 km/h (1 Bft) 91,49 %
23.09.2017 11:00 13,4 C 16,1 C 13,3 C 98 % 0 lf 1023,9 hPa 0,0 l/m 0 min 0 min 206 W/m 4,2 km/h (1 Bft) 95,74 %
23.09.2017 11:02 13,4 C 16,7 C 13,3 C 98 % 0 lf 1023,9 hPa 0,0 l/m 0 min 0 min 202 W/m 2,1 km/h (1 Bft) 95,74 %
23.09.2017 11:04 13,4 C 17,2 C 13,3 C 98 % 0 lf 1023,8 hPa 0,0 l/m 0 min 0 min 235 W/m 6,3 km/h (2 Bft) 95,65 %
23.09.2017 11:06 13,4 C 17,8 C 13,9 C 98 % 0 lf 1023,9 hPa 0,0 l/m 2 min 0 min 251 W/m 4,2 km/h (1 Bft) 95,74 %
23.09.2017 11:08 13,4 C 18,3 C 14,4 C 98 % 0 lf 1023,8 hPa 0,0 l/m 2 min 0 min 252 W/m 4,2 km/h (1 Bft) 95,74 %
23.09.2017 11:10 13,5 C 18,9 C 15,0 C 99 % 0 lf 1023,8 hPa 0,0 l/m 2 min 0 min 328 W/m 4,2 km/h (1 Bft) 89,36 %
23.09.2017 11:12 13,6 C 19,4 C 15,0 C 99 % 0 lf 1023,9 hPa 0,0 l/m 2 min 0 min 439 W/m 4,2 km/h (1 Bft) 93,62 %
23.09.2017 11:14 13,6 C 22,2 C 15,6 C 99 % 0 lf 1023,8 hPa 0,0 l/m 2 min 0 min 527 W/m 2,1 km/h (1 Bft) 93,62 %
23.09.2017 11:16 13,7 C 23,9 C 16,7 C 98 % 0 lf 1023,8 hPa 0,0 l/m 2 min 0 min 554 W/m 4,2 km/h (1 Bft) 95,65 %
23.09.2017 11:18 13,8 C 22,8 C 16,7 C 98 % 0 lf 1023,8 hPa 0,0 l/m 2 min 0 min 503 W/m 8,4 km/h (2 Bft) 95,74 %
23.09.2017 11:20 13,9 C 22,8 C 16,7 C 99 % 0 lf 1023,9 hPa 0,0 l/m 2 min 0 min 470 W/m 6,3 km/h (2 Bft) 97,87 %
23.09.2017 11:22 14,0 C 22,8 C 16,7 C 99 % 0 lf 1023,9 hPa 0,0 l/m 2 min 0 min 501 W/m 4,2 km/h (1 Bft) 97,87 %
23.09.2017 11:24 14,2 C 22,8 C 16,7 C 99 % 0 lf 1023,9 hPa 0,0 l/m 2 min 0 min 556 W/m 4,2 km/h (1 Bft) 95,74 %
23.09.2017 11:26 14,2 C 21,1 C 16,1 C 98 % 0 lf 1023,9 hPa 0,0 l/m 2 min 0 min 446 W/m 8,4 km/h (2 Bft) 97,87 %
23.09.2017 11:28 14,2 C 22,8 C 16,7 C 98 % 0 lf 1023,8 hPa 0,0 l/m 2 min 0 min 450 W/m 6,3 km/h (2 Bft) 97,83 %
23.09.2017 11:30 14,2 C 24,4 C 16,1 C 99 % 0 lf 1023,8 hPa 0,0 l/m 2 min 0 min 571 W/m 6,3 km/h (2 Bft) 97,87 %
23.09.2017 11:32 14,2 C 24,4 C 15,0 C 99 % 0 lf 1023,8 hPa 0,0 l/m 2 min 0 min 516 W/m 8,4 km/h (2 Bft) 97,87 %
23.09.2017 11:34 14,2 C 23,9 C 15,0 C 99 % 0 lf 1023,7 hPa 0,0 l/m 2 min 0 min 426 W/m 2,1 km/h (1 Bft) 97,87 %
23.09.2017 11:36 14,2 C 23,9 C 15,0 C 98 % 0 lf 1023,7 hPa 0,0 l/m 2 min 0 min 351 W/m 4,2 km/h (1 Bft) 97,87 %
23.09.2017 11:38 14,2 C 23,3 C 14,4 C 98 % 0 lf 1023,7 hPa 0,0 l/m 2 min 0 min 317 W/m 6,3 km/h (2 Bft) 93,62 %
23.09.2017 11:40 14,2 C 22,2 C 14,4 C 98 % 0 lf 1023,8 hPa 0,0 l/m 2 min 0 min 293 W/m 6,3 km/h (2 Bft) 97,83 %
23.09.2017 11:42 14,2 C 22,2 C 13,9 C 98 % 0 lf 1023,8 hPa 0,0 l/m 2 min 0 min 303 W/m 2,1 km/h (1 Bft) 100,00 %
23.09.2017 11:44 14,2 C 22,8 C 15,0 C 98 % 0 lf 1023,7 hPa 0,0 l/m 2 min 0 min 384 W/m 4,2 km/h (1 Bft) 97,87 %
23.09.2017 11:46 14,3 C 23,3 C 16,1 C 98 % 0 lf 1023,7 hPa 0,0 l/m 2 min 0 min 548 W/m 4,2 km/h (1 Bft) 93,62 %
23.09.2017 11:48 14,3 C 23,9 C 15,6 C 98 % 0 lf 1023,7 hPa 0,0 l/m 2 min 0 min 406 W/m 6,3 km/h (2 Bft) 95,74 %
23.09.2017 11:50 14,4 C 22,8 C 14,4 C 97 % 0 lf 1023,7 hPa 0,0 l/m 2 min 0 min 343 W/m 8,4 km/h (2 Bft) 95,74 %
23.09.2017 11:52 14,4 C 23,3 C 15,0 C 97 % 0 lf 1023,7 hPa 0,0 l/m 2 min 0 min 734 W/m 8,4 km/h (2 Bft) 97,83 %
23.09.2017 11:54 14,4 C 22,2 C 14,4 C 97 % 0 lf 1023,7 hPa 0,0 l/m 2 min 0 min 605 W/m 6,3 km/h (2 Bft) 97,87 %
23.09.2017 11:56 14,4 C 21,1 C 14,4 C 97 % 0 lf 1023,7 hPa 0,0 l/m 2 min 0 min 728 W/m 6,3 km/h (2 Bft) 97,87 %
23.09.2017 11:58 14,4 C 21,1 C 14,4 C 96 % 0 lf 1023,7 hPa 0,0 l/m 2 min 0 min 743 W/m 6,3 km/h (2 Bft) 97,87 %
23.09.2017 12:00 14,4 C 20,6 C 15,0 C 96 % 0 lf 1023,7 hPa 0,0 l/m 2 min 0 min 731 W/m 2,1 km/h (1 Bft) 91,49 %
23.09.2017 12:02 14,5 C 20,6 C 15,0 C 95 % 0 lf 1023,7 hPa 0,0 l/m 2 min 0 min 744 W/m 2,1 km/h (1 Bft) 93,62 %
23.09.2017 12:04 14,5 C 21,1 C 15,6 C 95 % 0 lf 1023,6 hPa 0,0 l/m 2 min 0 min 766 W/m 2,1 km/h (1 Bft) 97,83 %
23.09.2017 12:06 14,6 C 23,9 C 17,2 C 94 % 0 lf 1023,6 hPa 0,0 l/m 2 min 0 min 618 W/m 4,2 km/h (1 Bft) 97,87 %
23.09.2017 12:10 14,7 C 24,4 C 17,8 C 93 % 0 lf 1023,6 hPa 0,0 l/m 4 min 0 min 622 W/m 4,2 km/h (1 Bft) 97,94 %
23.09.2017 12:12 14,8 C 23,9 C 17,8 C 93 % 0 lf 1023,6 hPa 0,0 l/m 2 min 0 min 624 W/m 2,1 km/h (1 Bft) 97,87 %
23.09.2017 12:14 14,9 C 24,4 C 18,3 C 92 % 0 lf 1023,6 hPa 0,0 l/m 2 min 0 min 626 W/m 10,5 km/h (2 Bft) 97,83 %
23.09.2017 12:16 15,1 C 26,1 C 18,9 C 92 % 0 lf 1023,6 hPa 0,0 l/m 2 min 0 min 627 W/m 8,4 km/h (2 Bft) 97,87 %
23.09.2017 12:18 15,2 C 26,7 C 19,4 C 92 % 0 lf 1023,6 hPa 0,0 l/m 2 min 0 min 629 W/m 8,4 km/h (2 Bft) 97,87 %
23.09.2017 12:20 15,3 C 26,7 C 19,4 C 91 % 0 lf 1023,6 hPa 0,0 l/m 2 min 0 min 631 W/m 8,4 km/h (2 Bft) 93,62 %
23.09.2017 12:22 15,4 C 25,0 C 17,8 C 91 % 0 lf 1023,6 hPa 0,0 l/m 2 min 0 min 632 W/m 10,5 km/h (2 Bft) 93,62 %
23.09.2017 12:24 15,5 C 23,3 C 17,8 C 90 % 0 lf 1023,5 hPa 0,0 l/m 2 min 0 min 818 W/m 10,5 km/h (2 Bft) 97,87 %
23.09.2017 12:26 15,6 C 21,7 C 17,8 C 90 % 0 lf 1023,6 hPa 0,0 l/m 2 min 0 min 783 W/m 8,4 km/h (2 Bft) 97,83 %
23.09.2017 12:28 15,6 C 20,6 C 17,2 C 89 % 0 lf 1023,6 hPa 0,0 l/m 2 min 0 min 740 W/m 8,4 km/h (2 Bft) 97,87 %
23.09.2017 12:30 15,7 C 20,0 C 17,2 C 89 % 0 lf 1023,6 hPa 0,0 l/m 2 min 0 min 737 W/m 8,4 km/h (2 Bft) 100,00 %
23.09.2017 12:32 15,7 C 20,0 C 16,7 C 88 % 0 lf 1023,5 hPa 0,0 l/m 2 min 0 min 717 W/m 8,4 km/h (2 Bft) 97,87 %
23.09.2017 12:34 15,7 C 20,0 C 16,7 C 88 % 0 lf 1023,5 hPa 0,0 l/m 2 min 0 min 729 W/m 6,3 km/h (2 Bft) 97,87 %
23.09.2017 12:36 15,8 C 19,4 C 16,1 C 88 % 0 lf 1023,5 hPa 0,0 l/m 2 min 0 min 713 W/m 4,2 km/h (1 Bft) 97,87 %
23.09.2017 12:38 15,8 C 20,0 C 16,1 C 88 % 0 lf 1023,5 hPa 0,0 l/m 2 min 0 min 734 W/m 6,3 km/h (2 Bft) 100,00 %
23.09.2017 12:40 15,8 C 21,1 C 16,1 C 87 % 0 lf 1023,5 hPa 0,0 l/m 2 min 0 min 778 W/m 6,3 km/h (2 Bft) 100,00 %
23.09.2017 12:42 15,8 C 23,3 C 16,7 C 87 % 0 lf 1023,5 hPa 0,0 l/m 2 min 0 min 646 W/m 8,4 km/h (2 Bft) 100,00 %
23.09.2017 12:44 15,8 C 23,9 C 16,7 C 87 % 0 lf 1023,5 hPa 0,0 l/m 2 min 0 min 647 W/m 8,4 km/h (2 Bft) 97,87 %
23.09.2017 12:46 15,9 C 23,3 C 16,7 C 86 % 0 lf 1023,4 hPa 0,0 l/m 2 min 0 min 648 W/m 6,3 km/h (2 Bft) 95,74 %
23.09.2017 12:48 15,9 C 22,2 C 16,1 C 86 % 0 lf 1023,4 hPa 0,0 l/m 2 min 0 min 771 W/m 6,3 km/h (2 Bft) 97,87 %
23.09.2017 12:50 15,9 C 21,7 C 15,6 C 85 % 0 lf 1023,4 hPa 0,0 l/m 2 min 0 min 797 W/m 8,4 km/h (2 Bft) 100,00 %
23.09.2017 12:52 15,9 C 20,6 C 15,6 C 85 % 0 lf 1023,4 hPa 0,0 l/m 2 min 0 min 817 W/m 8,4 km/h (2 Bft) 100,00 %
23.09.2017 12:54 15,8 C 20,6 C 15,6 C 84 % 0 lf 1023,4 hPa 0,0 l/m 2 min 0 min 808 W/m 4,2 km/h (1 Bft) 100,00 %
23.09.2017 12:56 15,8 C 20,6 C 15,6 C 84 % 0 lf 1023,4 hPa 0,0 l/m 2 min 0 min 816 W/m 4,2 km/h (1 Bft) 97,87 %
23.09.2017 12:58 15,8 C 20,6 C 15,6 C 83 % 0 lf 1023,4 hPa 0,0 l/m 2 min 0 min 807 W/m 8,4 km/h (2 Bft) 97,87 %
23.09.2017 13:00 15,8 C 20,6 C 15,6 C 84 % 0 lf 1023,4 hPa 0,0 l/m 2 min 0 min 781 W/m 8,4 km/h (2 Bft) 100,00 %
23.09.2017 13:02 15,8 C 21,1 C 15,6 C 83 % 0 lf 1023,4 hPa 0,0 l/m 2 min 0 min 872 W/m 6,3 km/h (2 Bft) 100,00 %
23.09.2017 13:04 15,8 C 22,2 C 15,6 C 83 % 0 lf 1023,4 hPa 0,0 l/m 2 min 0 min 655 W/m 6,3 km/h (2 Bft) 97,87 %
23.09.2017 13:06 15,8 C 21,1 C 16,1 C 83 % 0 lf 1023,3 hPa 0,0 l/m 2 min 0 min 655 W/m 6,3 km/h (2 Bft) 93,62 %
23.09.2017 13:08 15,8 C 20,6 C 16,1 C 83 % 0 lf 1023,3 hPa 0,0 l/m 2 min 0 min 791 W/m 2,1 km/h (1 Bft) 93,62 %
23.09.2017 13:10 15,9 C 21,7 C 16,1 C 83 % 0 lf 1023,3 hPa 0,0 l/m 2 min 0 min 832 W/m 2,1 km/h (1 Bft) 93,62 %
23.09.2017 13:12 15,9 C 21,1 C 16,7 C 83 % 0 lf 1023,3 hPa 0,0 l/m 2 min 0 min 845 W/m 4,2 km/h (1 Bft) 91,49 %
23.09.2017 13:14 16,0 C 22,2 C 16,7 C 83 % 0 lf 1023,3 hPa 0,0 l/m 2 min 0 min 657 W/m 8,4 km/h (2 Bft) 95,65 %
23.09.2017 13:16 16,1 C 22,8 C 16,7 C 83 % 0 lf 1023,3 hPa 0,0 l/m 2 min 0 min 657 W/m 10,5 km/h (2 Bft) 93,62 %
23.09.2017 13:18 16,1 C 22,2 C 16,7 C 82 % 0 lf 1023,3 hPa 0,0 l/m 2 min 0 min 824 W/m 8,4 km/h (2 Bft) 95,74 %
23.09.2017 13:20 16,1 C 21,1 C 16,7 C 82 % 0 lf 1023,3 hPa 0,0 l/m 2 min 0 min 805 W/m 10,5 km/h (2 Bft) 95,74 %
23.09.2017 13:22 16,2 C 21,7 C 16,7 C 82 % 0 lf 1023,3 hPa 0,0 l/m 2 min 0 min 821 W/m 8,4 km/h (2 Bft) 95,74 %
23.09.2017 13:24 16,2 C 23,9 C 16,7 C 82 % 0 lf 1023,3 hPa 0,0 l/m 2 min 0 min 658 W/m 10,5 km/h (2 Bft) 95,65 %
23.09.2017 13:26 16,2 C 25,0 C 16,7 C 82 % 0 lf 1023,3 hPa 0,0 l/m 2 min 0 min 658 W/m 6,3 km/h (2 Bft) 91,49 %
23.09.2017 13:28 16,3 C 25,6 C 16,7 C 81 % 0 lf 1023,3 hPa 0,0 l/m 2 min 0 min 658 W/m 8,4 km/h (2 Bft) 93,62 %
23.09.2017 13:30 16,3 C 27,2 C 16,7 C 81 % 0 lf 1023,3 hPa 0,0 l/m 2 min 0 min 658 W/m 6,3 km/h (2 Bft) 95,74 %
23.09.2017 13:32 16,4 C 27,2 C 16,7 C 80 % 0 lf 1023,2 hPa 0,0 l/m 2 min 0 min 658 W/m 4,2 km/h (1 Bft) 95,74 %
23.09.2017 13:34 16,5 C 27,8 C 17,2 C 81 % 0 lf 1023,2 hPa 0,0 l/m 2 min 0 min 658 W/m 8,4 km/h (2 Bft) 95,74 %
23.09.2017 13:36 16,6 C 29,4 C 16,7 C 80 % 0 lf 1023,2 hPa 0,0 l/m 2 min 0 min 657 W/m 12,6 km/h (3 Bft) 93,48 %
23.09.2017 13:38 16,7 C 26,7 C 17,2 C 80 % 0 lf 1023,1 hPa 0,0 l/m 2 min 0 min 657 W/m 10,5 km/h (2 Bft) 93,62 %
23.09.2017 13:40 16,9 C 26,7 C 17,2 C 79 % 0 lf 1023,1 hPa 0,0 l/m 2 min 0 min 657 W/m 6,3 km/h (2 Bft) 93,62 %
23.09.2017 13:42 17,0 C 25,6 C 17,2 C 79 % 0 lf 1023,1 hPa 0,0 l/m 2 min 0 min 656 W/m 6,3 km/h (2 Bft) 93,62 %
23.09.2017 13:44 17,1 C 26,7 C 17,2 C 77 % 0 lf 1023,1 hPa 0,0 l/m 2 min 0 min 656 W/m 6,3 km/h (2 Bft) 93,62 %
23.09.2017 13:46 17,3 C 27,2 C 17,2 C 78 % 0 lf 1023,1 hPa 0,0 l/m 2 min 0 min 656 W/m 6,3 km/h (2 Bft) 93,62 %
23.09.2017 13:48 17,4 C 28,9 C 17,2 C 78 % 0 lf 1023,1 hPa 0,0 l/m 2 min 0 min 655 W/m 6,3 km/h (2 Bft) 93,48 %
23.09.2017 13:50 17,6 C 26,1 C 16,7 C 77 % 0 lf 1023,0 hPa 0,0 l/m 2 min 0 min 654 W/m 12,6 km/h (3 Bft) 95,74 %
23.09.2017 13:52 17,7 C 23,3 C 16,7 C 75 % 0 lf 1023,0 hPa 0,0 l/m 2 min 0 min 654 W/m 10,5 km/h (2 Bft) 93,62 %
23.09.2017 13:54 17,7 C 22,2 C 16,7 C 75 % 0 lf 1022,9 hPa 0,0 l/m 0 min 0 min 254 W/m 6,3 km/h (2 Bft) 95,74 %
23.09.2017 13:56 17,8 C 22,2 C 16,7 C 75 % 0 lf 1023,0 hPa 0,0 l/m 2 min 0 min 308 W/m 10,5 km/h (2 Bft) 93,62 %
23.09.2017 13:58 17,8 C 23,3 C 16,7 C 75 % 0 lf 1023,0 hPa 0,0 l/m 2 min 0 min 362 W/m 8,4 km/h (2 Bft) 93,62 %
23.09.2017 14:00 17,9 C 23,9 C 16,7 C 75 % 0 lf 1023,0 hPa 0,0 l/m 2 min 0 min 449 W/m 10,5 km/h (2 Bft) 95,65 %
23.09.2017 14:02 17,9 C 23,9 C 16,1 C 74 % 0 lf 1022,9 hPa 0,0 l/m 2 min 0 min 477 W/m 6,3 km/h (2 Bft) 95,74 %
23.09.2017 14:04 17,9 C 25,0 C 16,7 C 73 % 0 lf 1022,9 hPa 0,0 l/m 2 min 0 min 451 W/m 6,3 km/h (2 Bft) 97,87 %
23.09.2017 14:06 17,9 C 24,4 C 16,7 C 74 % 0 lf 1022,9 hPa 0,0 l/m 2 min 0 min 507 W/m 6,3 km/h (2 Bft) 93,62 %
23.09.2017 14:08 18,0 C 22,8 C 16,7 C 74 % 0 lf 1023,0 hPa 0,0 l/m 2 min 0 min 647 W/m 6,3 km/h (2 Bft) 95,74 %
23.09.2017 14:10 18,0 C 21,7 C 17,2 C 74 % 0 lf 1023,0 hPa 0,0 l/m 2 min 0 min 646 W/m 6,3 km/h (2 Bft) 97,87 %
23.09.2017 14:12 18,0 C 22,8 C 17,2 C 73 % 0 lf 1023,0 hPa 0,0 l/m 2 min 0 min 645 W/m 6,3 km/h (2 Bft) 97,83 %
23.09.2017 14:14 18,1 C 25,0 C 17,8 C 74 % 0 lf 1022,9 hPa 0,0 l/m 2 min 0 min 644 W/m 10,5 km/h (2 Bft) 97,87 %
23.09.2017 14:16 18,1 C 24,4 C 17,8 C 73 % 0 lf 1022,9 hPa 0,0 l/m 2 min 0 min 642 W/m 12,6 km/h (3 Bft) 95,74 %
23.09.2017 14:18 18,2 C 26,1 C 18,3 C 74 % 0 lf 1023,0 hPa 0,0 l/m 2 min 0 min 641 W/m 8,4 km/h (2 Bft) 95,74 %
23.09.2017 14:20 18,3 C 27,2 C 18,9 C 75 % 0 lf 1022,9 hPa 0,0 l/m 2 min 0 min 722 W/m 8,4 km/h (2 Bft) 95,74 %
23.09.2017 14:22 18,4 C 27,2 C 18,9 C 75 % 0 lf 1022,9 hPa 0,0 l/m 2 min 0 min 670 W/m 10,5 km/h (2 Bft) 97,87 %
23.09.2017 14:24 18,6 C 27,2 C 18,9 C 75 % 0 lf 1022,9 hPa 0,0 l/m 2 min 0 min 679 W/m 10,5 km/h (2 Bft) 97,83 %
23.09.2017 14:26 18,6 C 26,7 C 19,4 C 73 % 0 lf 1022,9 hPa 0,0 l/m 2 min 0 min 677 W/m 8,4 km/h (2 Bft) 95,74 %
23.09.2017 14:28 18,7 C 27,2 C 19,4 C 72 % 0 lf 1022,9 hPa 0,0 l/m 2 min 0 min 707 W/m 10,5 km/h (2 Bft) 97,87 %
23.09.2017 14:30 18,8 C 28,3 C 18,9 C 71 % 0 lf 1022,8 hPa 0,0 l/m 2 min 0 min 754 W/m 8,4 km/h (2 Bft) 97,87 %
23.09.2017 14:32 18,9 C 30,0 C 19,4 C 72 % 0 lf 1022,8 hPa 0,0 l/m 2 min 0 min 738 W/m 8,4 km/h (2 Bft) 97,87 %
23.09.2017 14:34 19,0 C 30,0 C 19,4 C 71 % 0 lf 1022,8 hPa 0,0 l/m 2 min 0 min 762 W/m 6,3 km/h (2 Bft) 93,48 %
23.09.2017 14:36 19,1 C 30,0 C 18,9 C 71 % 0 lf 1022,8 hPa 0,0 l/m 2 min 0 min 728 W/m 10,5 km/h (2 Bft) 97,87 %
23.09.2017 14:38 19,2 C 29,4 C 18,9 C 71 % 0 lf 1022,7 hPa 0,0 l/m 2 min 0 min 707 W/m 10,5 km/h (2 Bft) 93,62 %
23.09.2017 14:40 19,2 C 28,9 C 19,4 C 72 % 0 lf 1022,8 hPa 0,0 l/m 2 min 0 min 708 W/m 8,4 km/h (2 Bft) 97,87 %
23.09.2017 14:42 19,3 C 28,9 C 19,4 C 73 % 0 lf 1022,8 hPa 0,0 l/m 2 min 0 min 703 W/m 16,7 km/h (3 Bft) 97,87 %
23.09.2017 14:44 19,3 C 28,9 C 18,9 C 71 % 0 lf 1022,7 hPa 0,0 l/m 2 min 0 min 693 W/m 12,6 km/h (3 Bft) 95,74 %
23.09.2017 14:46 19,3 C 30,0 C 19,4 C 72 % 0 lf 1022,7 hPa 0,0 l/m 2 min 0 min 672 W/m 8,4 km/h (2 Bft) 97,83 %
23.09.2017 14:48 19,3 C 29,4 C 20,0 C 73 % 0 lf 1022,6 hPa 0,0 l/m 2 min 0 min 668 W/m 14,6 km/h (3 Bft) 97,87 %
23.09.2017 14:50 19,4 C 28,9 C 20,0 C 73 % 0 lf 1022,5 hPa 0,0 l/m 2 min 0 min 645 W/m 8,4 km/h (2 Bft) 95,74 %
23.09.2017 14:52 19,4 C 28,3 C 19,4 C 72 % 0 lf 1022,6 hPa 0,0 l/m 2 min 0 min 621 W/m 8,4 km/h (2 Bft) 97,87 %
23.09.2017 14:54 19,5 C 27,2 C 19,4 C 71 % 0 lf 1022,5 hPa 0,0 l/m 2 min 0 min 437 W/m 10,5 km/h (2 Bft) 97,87 %
23.09.2017 14:56 19,4 C 25,6 C 18,3 C 71 % 0 lf 1022,6 hPa 0,0 l/m 2 min 0 min 283 W/m 8,4 km/h (2 Bft) 95,74 %
23.09.2017 14:58 19,4 C 24,4 C 18,3 C 70 % 0 lf 1022,6 hPa 0,0 l/m 0 min 0 min 275 W/m 8,4 km/h (2 Bft) 100,00 %
23.09.2017 15:00 19,3 C 23,3 C 17,8 C 69 % 0 lf 1022,5 hPa 0,0 l/m 2 min 0 min 285 W/m 8,4 km/h (2 Bft) 100,00 %
23.09.2017 15:02 19,3 C 22,8 C 17,8 C 69 % 0 lf 1022,6 hPa 0,0 l/m 0 min 0 min 269 W/m 8,4 km/h (2 Bft) 100,00 %
23.09.2017 15:04 19,2 C 22,2 C 17,2 C 69 % 0 lf 1022,5 hPa 0,0 l/m 0 min 0 min 269 W/m 8,4 km/h (2 Bft) 95,74 %
23.09.2017 15:06 19,1 C 21,7 C 17,8 C 69 % 0 lf 1022,5 hPa 0,0 l/m 0 min 0 min 276 W/m 8,4 km/h (2 Bft) 100,00 %
23.09.2017 15:08 18,9 C 21,7 C 17,2 C 69 % 0 lf 1022,5 hPa 0,0 l/m 0 min 0 min 265 W/m 6,3 km/h (2 Bft) 97,87 %
23.09.2017 15:10 18,9 C 21,1 C 17,2 C 69 % 0 lf 1022,5 hPa 0,0 l/m 0 min 0 min 232 W/m 8,4 km/h (2 Bft) 100,00 %
23.09.2017 15:12 18,8 C 21,1 C 17,2 C 70 % 0 lf 1022,5 hPa 0,0 l/m 0 min 0 min 228 W/m 6,3 km/h (2 Bft) 100,00 %
23.09.2017 15:14 18,7 C 20,6 C 17,2 C 70 % 0 lf 1022,5 hPa 0,0 l/m 0 min 0 min 216 W/m 6,3 km/h (2 Bft) 100,00 %
23.09.2017 15:16 18,6 C 20,6 C 17,2 C 71 % 0 lf 1022,5 hPa 0,0 l/m 0 min 0 min 191 W/m 8,4 km/h (2 Bft) 100,00 %
23.09.2017 15:18 18,6 C 20,6 C 17,2 C 71 % 0 lf 1022,5 hPa 0,0 l/m 0 min 0 min 181 W/m 6,3 km/h (2 Bft) 100,00 %
23.09.2017 15:20 18,4 C 20,0 C 17,2 C 71 % 0 lf 1022,5 hPa 0,0 l/m 0 min 0 min 181 W/m 4,2 km/h (1 Bft) 100,00 %
23.09.2017 15:22 18,4 C 20,0 C 17,2 C 72 % 0 lf 1022,5 hPa 0,0 l/m 0 min 0 min 195 W/m 4,2 km/h (1 Bft) 100,00 %
23.09.2017 15:24 18,4 C 19,4 C 17,2 C 72 % 0 lf 1022,4 hPa 0,0 l/m 0 min 0 min 210 W/m 4,2 km/h (1 Bft) 100,00 %
23.09.2017 15:26 18,3 C 19,4 C 17,8 C 72 % 0 lf 1022,4 hPa 0,0 l/m 0 min 0 min 212 W/m 2,1 km/h (1 Bft) 93,62 %
23.09.2017 15:28 18,3 C 20,0 C 17,8 C 73 % 0 lf 1022,4 hPa 0,0 l/m 0 min 0 min 257 W/m 2,1 km/h (1 Bft) 100,00 %
23.09.2017 15:30 18,3 C 20,6 C 17,8 C 73 % 0 lf 1022,4 hPa 0,0 l/m 0 min 0 min 251 W/m 0,0 km/h (0 Bft) 100,00 %
23.09.2017 15:32 18,3 C 22,2 C 18,3 C 73 % 0 lf 1022,4 hPa 0,0 l/m 0 min 0 min 260 W/m 2,1 km/h (1 Bft) 100,00 %
23.09.2017 15:34 18,3 C 23,3 C 17,8 C 73 % 0 lf 1022,4 hPa 0,0 l/m 2 min 0 min 309 W/m 4,2 km/h (1 Bft) 97,83 %
23.09.2017 15:36 18,3 C 25,0 C 18,3 C 74 % 0 lf 1022,4 hPa 0,0 l/m 2 min 0 min 361 W/m 6,3 km/h (2 Bft) 97,87 %
23.09.2017 15:38 18,4 C 25,0 C 18,3 C 73 % 0 lf 1022,4 hPa 0,0 l/m 2 min 0 min 427 W/m 6,3 km/h (2 Bft) 100,00 %
23.09.2017 15:40 18,4 C 25,0 C 18,3 C 73 % 0 lf 1022,4 hPa 0,0 l/m 2 min 0 min 457 W/m 6,3 km/h (2 Bft) 97,87 %
23.09.2017 15:42 18,5 C 25,0 C 18,3 C 72 % 0 lf 1022,3 hPa 0,0 l/m 2 min 0 min 425 W/m 4,2 km/h (1 Bft) 91,49 %
23.09.2017 15:44 18,6 C 23,9 C 18,3 C 72 % 0 lf 1022,4 hPa 0,0 l/m 2 min 0 min 390 W/m 4,2 km/h (1 Bft) 95,65 %
23.09.2017 15:46 18,6 C 23,3 C 17,8 C 71 % 0 lf 1022,3 hPa 0,0 l/m 2 min 0 min 352 W/m 6,3 km/h (2 Bft) 95,74 %
23.09.2017 15:48 18,6 C 22,8 C 17,8 C 71 % 0 lf 1022,4 hPa 0,0 l/m 2 min 0 min 350 W/m 4,2 km/h (1 Bft) 97,87 %
23.09.2017 15:50 18,6 C 22,8 C 17,8 C 70 % 0 lf 1022,3 hPa 0,0 l/m 2 min 0 min 343 W/m 4,2 km/h (1 Bft) 95,74 %
23.09.2017 15:52 18,7 C 22,8 C 17,8 C 71 % 0 lf 1022,2 hPa 0,0 l/m 2 min 0 min 437 W/m 8,4 km/h (2 Bft) 97,87 %
23.09.2017 15:54 18,7 C 23,9 C 18,3 C 72 % 0 lf 1022,2 hPa 0,0 l/m 2 min 0 min 491 W/m 8,4 km/h (2 Bft) 97,87 %
23.09.2017 15:56 18,8 C 24,4 C 18,3 C 71 % 0 lf 1022,2 hPa 0,0 l/m 2 min 0 min 515 W/m 8,4 km/h (2 Bft) 100,00 %
23.09.2017 15:58 18,8 C 25,6 C 18,9 C 71 % 0 lf 1022,1 hPa 0,0 l/m 2 min 0 min 509 W/m 8,4 km/h (2 Bft) 97,87 %
23.09.2017 16:00 18,9 C 26,1 C 18,9 C 71 % 0 lf 1022,1 hPa 0,0 l/m 2 min 0 min 504 W/m 6,3 km/h (2 Bft) 97,87 %
23.09.2017 16:02 19,1 C 25,0 C 18,9 C 71 % 0 lf 1022,1 hPa 0,0 l/m 2 min 0 min 509 W/m 6,3 km/h (2 Bft) 97,87 %
23.09.2017 16:04 19,1 C 25,0 C 18,9 C 70 % 0 lf 1022,1 hPa 0,0 l/m 2 min 0 min 501 W/m 6,3 km/h (2 Bft) 97,87 %
23.09.2017 16:06 19,2 C 25,6 C 18,9 C 70 % 0 lf 1022,1 hPa 0,0 l/m 2 min 0 min 510 W/m 8,4 km/h (2 Bft) 93,62 %
23.09.2017 16:08 19,2 C 26,7 C 18,9 C 69 % 0 lf 1022,1 hPa 0,0 l/m 2 min 0 min 524 W/m 8,4 km/h (2 Bft) 97,83 %
23.09.2017 16:10 19,2 C 27,2 C 19,4 C 71 % 0 lf 1022,1 hPa 0,0 l/m 2 min 0 min 529 W/m 6,3 km/h (2 Bft) 95,74 %
23.09.2017 16:12 19,3 C 27,8 C 20,0 C 71 % 0 lf 1022,0 hPa 0,0 l/m 2 min 0 min 536 W/m 6,3 km/h (2 Bft) 97,87 %
23.09.2017 16:14 19,4 C 27,8 C 19,4 C 70 % 0 lf 1022,0 hPa 0,0 l/m 2 min 0 min 532 W/m 10,5 km/h (2 Bft) 95,74 %
23.09.2017 16:16 19,4 C 26,7 C 18,3 C 68 % 0 lf 1022,0 hPa 0,0 l/m 2 min 0 min 526 W/m 12,6 km/h (3 Bft) 91,49 %
23.09.2017 16:18 19,4 C 26,1 C 18,3 C 68 % 0 lf 1022,0 hPa 0,0 l/m 2 min 0 min 513 W/m 12,6 km/h (3 Bft) 93,62 %
23.09.2017 16:20 19,5 C 26,1 C 18,9 C 69 % 0 lf 1021,9 hPa 0,0 l/m 2 min 0 min 507 W/m 8,4 km/h (2 Bft) 93,48 %
23.09.2017 16:22 19,4 C 26,1 C 18,9 C 68 % 0 lf 1021,9 hPa 0,0 l/m 2 min 0 min 503 W/m 12,6 km/h (3 Bft) 93,62 %
23.09.2017 16:24 19,4 C 25,0 C 18,3 C 68 % 0 lf 1022,0 hPa 0,0 l/m 2 min 0 min 504 W/m 16,7 km/h (3 Bft) 97,87 %
23.09.2017 16:26 19,4 C 23,9 C 17,8 C 68 % 0 lf 1021,9 hPa 0,0 l/m 2 min 0 min 494 W/m 14,6 km/h (3 Bft) 100,00 %
23.09.2017 16:28 19,3 C 23,3 C 17,8 C 68 % 0 lf 1021,9 hPa 0,0 l/m 2 min 0 min 476 W/m 14,6 km/h (3 Bft) 91,49 %
23.09.2017 16:30 19,3 C 22,8 C 17,8 C 69 % 0 lf 1021,9 hPa 0,0 l/m 2 min 0 min 395 W/m 14,6 km/h (3 Bft) 97,87 %
23.09.2017 16:32 19,2 C 23,3 C 17,8 C 69 % 0 lf 1021,9 hPa 0,0 l/m 2 min 0 min 384 W/m 12,6 km/h (3 Bft) 95,65 %
23.09.2017 16:34 19,2 C 23,3 C 17,8 C 69 % 0 lf 1022,0 hPa 0,0 l/m 2 min 0 min 430 W/m 14,6 km/h (3 Bft) 93,62 %
23.09.2017 16:36 19,1 C 23,3 C 17,8 C 69 % 0 lf 1021,9 hPa 0,0 l/m 2 min 0 min 394 W/m 16,7 km/h (3 Bft) 95,74 %
23.09.2017 16:38 19,1 C 23,3 C 17,8 C 69 % 0 lf 1021,9 hPa 0,0 l/m 2 min 0 min 410 W/m 10,5 km/h (2 Bft) 95,74 %
23.09.2017 16:40 19,0 C 22,8 C 17,8 C 69 % 0 lf 1021,9 hPa 0,0 l/m 2 min 0 min 396 W/m 10,5 km/h (2 Bft) 95,74 %
23.09.2017 16:42 18,9 C 23,3 C 17,8 C 69 % 0 lf 1021,9 hPa 0,0 l/m 2 min 0 min 398 W/m 10,5 km/h (2 Bft) 95,74 %
23.09.2017 16:44 18,9 C 22,8 C 17,8 C 69 % 0 lf 1021,8 hPa 0,0 l/m 2 min 0 min 376 W/m 8,4 km/h (2 Bft) 93,48 %
23.09.2017 16:46 18,9 C 23,3 C 17,8 C 70 % 0 lf 1021,8 hPa 0,0 l/m 2 min 0 min 367 W/m 10,5 km/h (2 Bft) 91,49 %
23.09.2017 16:48 18,8 C 22,2 C 17,8 C 70 % 0 lf 1021,9 hPa 0,0 l/m 2 min 0 min 353 W/m 8,4 km/h (2 Bft) 93,62 %
23.09.2017 16:50 18,8 C 21,7 C 17,2 C 70 % 0 lf 1021,9 hPa 0,0 l/m 2 min 0 min 256 W/m 10,5 km/h (2 Bft) 91,49 %
23.09.2017 16:52 18,8 C 22,2 C 17,2 C 71 % 0 lf 1021,8 hPa 0,0 l/m 2 min 0 min 309 W/m 10,5 km/h (2 Bft) 91,49 %
23.09.2017 16:54 18,8 C 22,2 C 17,8 C 71 % 0 lf 1021,8 hPa 0,0 l/m 2 min 0 min 321 W/m 10,5 km/h (2 Bft) 93,62 %
23.09.2017 16:56 18,8 C 22,2 C 17,8 C 71 % 0 lf 1021,8 hPa 0,0 l/m 2 min 0 min 309 W/m 6,3 km/h (2 Bft) 91,30 %
23.09.2017 16:58 18,8 C 22,2 C 17,2 C 71 % 0 lf 1021,8 hPa 0,0 l/m 2 min 0 min 309 W/m 14,6 km/h (3 Bft) 93,62 %
23.09.2017 17:00 18,8 C 21,7 C 17,2 C 71 % 0 lf 1021,8 hPa 0,0 l/m 2 min 0 min 301 W/m 12,6 km/h (3 Bft) 93,62 %
23.09.2017 17:02 18,8 C 21,7 C 17,2 C 71 % 0 lf 1021,7 hPa 0,0 l/m 2 min 0 min 296 W/m 8,4 km/h (2 Bft) 93,62 %
23.09.2017 17:04 18,8 C 21,7 C 17,2 C 71 % 0 lf 1021,7 hPa 0,0 l/m 2 min 0 min 295 W/m 8,4 km/h (2 Bft) 91,49 %
23.09.2017 17:06 18,8 C 21,1 C 17,2 C 71 % 0 lf 1021,7 hPa 0,0 l/m 2 min 0 min 294 W/m 10,5 km/h (2 Bft) 95,74 %
23.09.2017 17:08 18,8 C 20,6 C 16,7 C 70 % 0 lf 1021,7 hPa 0,0 l/m 2 min 0 min 288 W/m 8,4 km/h (2 Bft) 91,30 %
23.09.2017 17:10 18,8 C 20,6 C 16,7 C 70 % 0 lf 1021,7 hPa 0,0 l/m 2 min 0 min 282 W/m 12,6 km/h (3 Bft) 95,74 %
23.09.2017 17:12 18,8 C 20,0 C 16,7 C 70 % 0 lf 1021,7 hPa 0,0 l/m 2 min 0 min 271 W/m 10,5 km/h (2 Bft) 95,74 %
23.09.2017 17:14 18,7 C 20,0 C 16,7 C 70 % 0 lf 1021,6 hPa 0,0 l/m 2 min 0 min 268 W/m 6,3 km/h (2 Bft) 91,49 %
23.09.2017 17:16 18,7 C 20,0 C 16,7 C 71 % 0 lf 1021,7 hPa 0,0 l/m 2 min 0 min 267 W/m 6,3 km/h (2 Bft) 95,74 %
23.09.2017 17:18 18,7 C 20,0 C 16,7 C 71 % 0 lf 1021,7 hPa 0,0 l/m 2 min 0 min 263 W/m 8,4 km/h (2 Bft) 95,65 %
23.09.2017 17:20 18,8 C 20,6 C 16,7 C 71 % 0 lf 1021,7 hPa 0,0 l/m 2 min 0 min 261 W/m 10,5 km/h (2 Bft) 93,62 %
23.09.2017 17:22 18,8 C 20,0 C 16,7 C 72 % 0 lf 1021,6 hPa 0,0 l/m 2 min 0 min 263 W/m 12,6 km/h (3 Bft) 93,62 %
23.09.2017 17:24 18,8 C 20,0 C 16,7 C 71 % 0 lf 1021,6 hPa 0,0 l/m 2 min 0 min 266 W/m 10,5 km/h (2 Bft) 95,74 %
23.09.2017 17:26 18,8 C 20,0 C 16,7 C 71 % 0 lf 1021,6 hPa 0,0 l/m 2 min 0 min 270 W/m 10,5 km/h (2 Bft) 95,74 %
23.09.2017 17:28 18,8 C 20,0 C 16,7 C 71 % 0 lf 1021,6 hPa 0,0 l/m 2 min 0 min 269 W/m 12,6 km/h (3 Bft) 97,87 %
23.09.2017 17:30 18,8 C 19,4 C 16,7 C 70 % 0 lf 1021,6 hPa 0,0 l/m 2 min 0 min 262 W/m 12,6 km/h (3 Bft) 100,00 %
23.09.2017 17:32 18,8 C 19,4 C 16,7 C 71 % 0 lf 1021,7 hPa 0,0 l/m 2 min 0 min 246 W/m 10,5 km/h (2 Bft) 100,00 %
23.09.2017 17:34 18,8 C 19,4 C 16,7 C 72 % 0 lf 1021,6 hPa 0,0 l/m 2 min 0 min 232 W/m 12,6 km/h (3 Bft) 100,00 %
23.09.2017 17:36 18,8 C 19,4 C 16,7 C 71 % 0 lf 1021,6 hPa 0,0 l/m 2 min 0 min 215 W/m 12,6 km/h (3 Bft) 100,00 %
23.09.2017 17:38 18,8 C 19,4 C 16,7 C 71 % 0 lf 1021,6 hPa 0,0 l/m 2 min 0 min 200 W/m 10,5 km/h (2 Bft) 97,87 %
23.09.2017 17:40 18,7 C 19,4 C 16,7 C 71 % 0 lf 1021,5 hPa 0,0 l/m 2 min 0 min 189 W/m 10,5 km/h (2 Bft) 97,87 %
23.09.2017 17:42 18,7 C 18,9 C 16,7 C 71 % 0 lf 1021,4 hPa 0,0 l/m 2 min 0 min 178 W/m 12,6 km/h (3 Bft) 97,83 %
23.09.2017 17:44 18,7 C 18,9 C 16,1 C 70 % 0 lf 1021,4 hPa 0,0 l/m 2 min 0 min 168 W/m 12,6 km/h (3 Bft) 100,00 %
23.09.2017 17:46 18,7 C 18,9 C 16,1 C 71 % 0 lf 1021,4 hPa 0,0 l/m 2 min 0 min 162 W/m 8,4 km/h (2 Bft) 95,74 %
23.09.2017 17:48 18,6 C 18,9 C 16,1 C 71 % 0 lf 1021,5 hPa 0,0 l/m 2 min 0 min 161 W/m 10,5 km/h (2 Bft) 100,00 %
23.09.2017 17:50 18,6 C 18,9 C 16,1 C 71 % 0 lf 1021,5 hPa 0,0 l/m 2 min 0 min 159 W/m 12,6 km/h (3 Bft) 97,87 %
23.09.2017 17:52 18,6 C 18,3 C 16,1 C 71 % 0 lf 1021,5 hPa 0,0 l/m 2 min 0 min 149 W/m 10,5 km/h (2 Bft) 97,87 %
23.09.2017 17:54 18,5 C 18,3 C 16,1 C 71 % 0 lf 1021,5 hPa 0,0 l/m 2 min 0 min 139 W/m 12,6 km/h (3 Bft) 100,00 %
23.09.2017 17:56 18,4 C 18,3 C 16,1 C 71 % 0 lf 1021,5 hPa 0,0 l/m 2 min 0 min 140 W/m 12,6 km/h (3 Bft) 100,00 %
23.09.2017 17:58 18,4 C 18,3 C 16,1 C 71 % 0 lf 1021,5 hPa 0,0 l/m 2 min 0 min 146 W/m 8,4 km/h (2 Bft) 97,87 %
23.09.2017 18:00 18,4 C 18,3 C 16,1 C 71 % 0 lf 1021,5 hPa 0,0 l/m 2 min 0 min 143 W/m 8,4 km/h (2 Bft) 100,00 %
23.09.2017 18:02 18,3 C 18,3 C 16,1 C 72 % 0 lf 1021,4 hPa 0,0 l/m 2 min 0 min 133 W/m 12,6 km/h (3 Bft) 100,00 %
23.09.2017 18:04 18,3 C 18,3 C 16,1 C 72 % 0 lf 1021,4 hPa 0,0 l/m 2 min 0 min 124 W/m 10,5 km/h (2 Bft) 97,87 %
23.09.2017 18:06 18,3 C 18,3 C 16,1 C 73 % 0 lf 1021,5 hPa 0,0 l/m 2 min 0 min 121 W/m 8,4 km/h (2 Bft) 100,00 %
23.09.2017 18:10 18,2 C 18,3 C 16,1 C 73 % 0 lf 1021,5 hPa 0,0 l/m 4 min 0 min 118 W/m 10,5 km/h (2 Bft) 98,81 %
23.09.2017 18:12 18,2 C 17,8 C 16,1 C 73 % 0 lf 1021,5 hPa 0,0 l/m 2 min 0 min 111 W/m 10,5 km/h (2 Bft) 97,87 %
23.09.2017 18:14 18,2 C 17,8 C 15,6 C 73 % 0 lf 1021,4 hPa 0,0 l/m 2 min 0 min 108 W/m 14,6 km/h (3 Bft) 97,87 %
23.09.2017 18:16 18,1 C 17,8 C 15,6 C 73 % 0 lf 1021,4 hPa 0,0 l/m 2 min 0 min 105 W/m 16,7 km/h (3 Bft) 95,65 %
23.09.2017 18:18 18,0 C 17,8 C 15,6 C 73 % 0 lf 1021,4 hPa 0,0 l/m 2 min 0 min 100 W/m 14,6 km/h (3 Bft) 95,74 %
23.09.2017 18:20 17,9 C 17,2 C 15,6 C 74 % 0 lf 1021,4 hPa 0,0 l/m 2 min 0 min 95 W/m 12,6 km/h (3 Bft) 96,61 %
23.09.2017 18:22 17,9 C 17,2 C 15,6 C 74 % 0 lf 1021,5 hPa 0,0 l/m 2 min 0 min 90 W/m 16,7 km/h (3 Bft) 94,29 %
23.09.2017 18:24 17,9 C 17,2 C 15,6 C 74 % 0 lf 1021,4 hPa 0,0 l/m 2 min 0 min 85 W/m 14,6 km/h (3 Bft) 97,87 %
23.09.2017 18:26 17,8 C 17,2 C 15,6 C 74 % 0 lf 1021,5 hPa 0,0 l/m 2 min 0 min 82 W/m 16,7 km/h (3 Bft) 97,87 %
23.09.2017 18:28 17,8 C 17,2 C 15,6 C 75 % 0 lf 1021,4 hPa 0,0 l/m 2 min 0 min 76 W/m 12,6 km/h (3 Bft) 97,83 %
23.09.2017 18:30 17,7 C 17,2 C 15,6 C 75 % 0 lf 1021,5 hPa 0,0 l/m 0 min 0 min 71 W/m 10,5 km/h (2 Bft) 97,87 %
23.09.2017 18:32 17,7 C 17,2 C 15,0 C 75 % 0 lf 1021,5 hPa 0,0 l/m 0 min 0 min 68 W/m 10,5 km/h (2 Bft) 95,74 %
23.09.2017 18:34 17,6 C 17,2 C 15,0 C 75 % 0 lf 1021,4 hPa 0,0 l/m 0 min 0 min 64 W/m 8,4 km/h (2 Bft) 97,87 %
23.09.2017 18:36 17,6 C 17,2 C 15,0 C 75 % 0 lf 1021,5 hPa 0,0 l/m 0 min 0 min 62 W/m 8,4 km/h (2 Bft) 97,87 %
23.09.2017 18:38 17,6 C 16,7 C 15,0 C 76 % 0 lf 1021,6 hPa 0,0 l/m 0 min 0 min 58 W/m 8,4 km/h (2 Bft) 97,83 %
23.09.2017 18:40 17,5 C 16,7 C 15,0 C 76 % 0 lf 1021,5 hPa 0,0 l/m 0 min 0 min 56 W/m 6,3 km/h (2 Bft) 97,87 %
23.09.2017 18:42 17,4 C 16,7 C 15,0 C 76 % 0 lf 1021,6 hPa 0,0 l/m 0 min 0 min 53 W/m 10,5 km/h (2 Bft) 97,87 %
23.09.2017 18:44 17,4 C 16,7 C 15,0 C 76 % 0 lf 1021,5 hPa 0,0 l/m 0 min 0 min 49 W/m 8,4 km/h (2 Bft) 97,87 %
23.09.2017 18:46 17,4 C 16,7 C 15,0 C 76 % 0 lf 1021,6 hPa 0,0 l/m 0 min 0 min 47 W/m 8,4 km/h (2 Bft) 97,87 %
23.09.2017 18:48 17,3 C 16,7 C 15,0 C 76 % 0 lf 1021,6 hPa 0,0 l/m 0 min 0 min 46 W/m 6,3 km/h (2 Bft) 100,00 %
23.09.2017 18:50 17,3 C 16,7 C 15,0 C 76 % 0 lf 1021,6 hPa 0,0 l/m 0 min 0 min 43 W/m 8,4 km/h (2 Bft) 94,83 %
23.09.2017 18:52 17,3 C 16,1 C 15,0 C 77 % 0 lf 1021,7 hPa 0,0 l/m 0 min 0 min 41 W/m 8,4 km/h (2 Bft) 100,00 %
23.09.2017 18:54 17,2 C 16,1 C 15,0 C 77 % 0 lf 1021,6 hPa 0,0 l/m 0 min 0 min 39 W/m 6,3 km/h (2 Bft) 100,00 %
23.09.2017 18:56 17,2 C 16,1 C 14,4 C 77 % 0 lf 1021,7 hPa 0,0 l/m 0 min 0 min 37 W/m 6,3 km/h (2 Bft) 100,00 %
23.09.2017 18:58 17,2 C 16,1 C 14,4 C 77 % 0 lf 1021,7 hPa 0,0 l/m 0 min 0 min 35 W/m 6,3 km/h (2 Bft) 100,00 %
23.09.2017 19:00 17,2 C 16,1 C 14,4 C 78 % 0 lf 1021,7 hPa 0,0 l/m 0 min 0 min 33 W/m 6,3 km/h (2 Bft) 95,74 %
23.09.2017 19:02 17,1 C 16,1 C 14,4 C 78 % 0 lf 1021,7 hPa 0,0 l/m 2 min 0 min 32 W/m 6,3 km/h (2 Bft) 100,00 %
23.09.2017 19:04 17,1 C 15,6 C 14,4 C 78 % 0 lf 1021,7 hPa 0,0 l/m 2 min 0 min 31 W/m 6,3 km/h (2 Bft) 100,00 %
23.09.2017 19:06 17,0 C 15,6 C 14,4 C 78 % 0 lf 1021,7 hPa 0,0 l/m 2 min 0 min 29 W/m 6,3 km/h (2 Bft) 95,74 %
23.09.2017 19:08 16,9 C 15,6 C 14,4 C 78 % 0 lf 1021,7 hPa 0,0 l/m 2 min 0 min 27 W/m 6,3 km/h (2 Bft) 97,87 %
23.09.2017 19:10 16,9 C 15,6 C 14,4 C 79 % 0 lf 1021,7 hPa 0,0 l/m 2 min 0 min 25 W/m 8,4 km/h (2 Bft) 100,00 %
23.09.2017 19:12 16,8 C 15,6 C 13,9 C 79 % 0 lf 1021,6 hPa 0,0 l/m 2 min 0 min 24 W/m 8,4 km/h (2 Bft) 97,87 %
23.09.2017 19:14 16,8 C 15,6 C 13,9 C 79 % 0 lf 1021,7 hPa 0,0 l/m 2 min 0 min 23 W/m 8,4 km/h (2 Bft) 97,83 %
23.09.2017 19:16 16,7 C 15,6 C 13,9 C 79 % 0 lf 1021,7 hPa 0,0 l/m 2 min 0 min 21 W/m 8,4 km/h (2 Bft) 97,87 %
23.09.2017 19:18 16,7 C 15,6 C 13,9 C 79 % 0 lf 1021,8 hPa 0,0 l/m 2 min 0 min 20 W/m 10,5 km/h (2 Bft) 97,87 %
23.09.2017 19:20 16,6 C 15,0 C 13,9 C 79 % 0 lf 1021,7 hPa 0,0 l/m 0 min 0 min 19 W/m 8,4 km/h (2 Bft) 91,49 %
23.09.2017 19:22 16,6 C 15,0 C 13,9 C 79 % 0 lf 1021,7 hPa 0,0 l/m 0 min 0 min 19 W/m 8,4 km/h (2 Bft) 93,62 %
23.09.2017 19:24 16,5 C 15,0 C 13,9 C 80 % 0 lf 1021,7 hPa 0,0 l/m 0 min 0 min 18 W/m 8,4 km/h (2 Bft) 91,49 %
23.09.2017 19:26 16,4 C 15,0 C 13,9 C 80 % 0 lf 1021,7 hPa 0,0 l/m 0 min 0 min 16 W/m 8,4 km/h (2 Bft) 95,65 %
23.09.2017 19:28 16,4 C 15,0 C 13,9 C 80 % 0 lf 1021,7 hPa 0,0 l/m 0 min 0 min 14 W/m 8,4 km/h (2 Bft) 95,74 %
23.09.2017 19:30 16,3 C 15,0 C 13,9 C 80 % 0 lf 1021,7 hPa 0,0 l/m 0 min 0 min 12 W/m 4,2 km/h (1 Bft) 95,74 %
23.09.2017 19:32 16,3 C 15,0 C 13,9 C 80 % 0 lf 1021,6 hPa 0,0 l/m 0 min 0 min 11 W/m 6,3 km/h (2 Bft) 93,62 %
23.09.2017 19:34 16,3 C 15,0 C 13,9 C 80 % 0 lf 1021,6 hPa 0,0 l/m 0 min 0 min 10 W/m 8,4 km/h (2 Bft) 95,74 %
23.09.2017 19:36 16,2 C 15,0 C 13,9 C 81 % 0 lf 1021,6 hPa 0,0 l/m 0 min 0 min 9 W/m 6,3 km/h (2 Bft) 93,62 %
23.09.2017 19:38 16,2 C 15,0 C 13,9 C 81 % 0 lf 1021,7 hPa 0,0 l/m 0 min 0 min 8 W/m 6,3 km/h (2 Bft) 95,65 %
23.09.2017 19:40 16,1 C 14,4 C 13,3 C 81 % 0 lf 1021,6 hPa 0,0 l/m 0 min 0 min 5 W/m 8,4 km/h (2 Bft) 91,49 %
23.09.2017 19:42 16,1 C 14,4 C 13,3 C 81 % 0 lf 1021,7 hPa 0,0 l/m 0 min 0 min 5 W/m 8,4 km/h (2 Bft) 93,62 %
23.09.2017 19:44 16,0 C 14,4 C 13,3 C 81 % 0 lf 1021,7 hPa 0,0 l/m 0 min 0 min 5 W/m 4,2 km/h (1 Bft) 91,49 %
23.09.2017 19:46 16,0 C 14,4 C 12,8 C 81 % 0 lf 1021,7 hPa 0,0 l/m 0 min 0 min 2 W/m 6,3 km/h (2 Bft) 95,74 %
23.09.2017 19:48 15,9 C 13,9 C 12,8 C 81 % 0 lf 1021,8 hPa 0,0 l/m 0 min 0 min 0 W/m 6,3 km/h (2 Bft) 95,74 %
23.09.2017 19:50 15,9 C 13,9 C 12,2 C 81 % 0 lf 1021,8 hPa 0,0 l/m 0 min 0 min 0 W/m 4,2 km/h (1 Bft) 93,10 %
23.09.2017 19:52 15,9 C 13,9 C 12,2 C 81 % 0 lf 1021,8 hPa 0,0 l/m 0 min 0 min 0 W/m 4,2 km/h (1 Bft) 97,14 %
23.09.2017 19:54 15,8 C 13,9 C 12,2 C 81 % 0 lf 1021,8 hPa 0,0 l/m 0 min 0 min 0 W/m 2,1 km/h (1 Bft) 91,49 %
23.09.2017 19:56 15,8 C 13,3 C 11,7 C 81 % 0 lf 1021,7 hPa 0,0 l/m 0 min 0 min 0 W/m 2,1 km/h (1 Bft) 95,74 %
23.09.2017 19:58 15,7 C 13,3 C 11,7 C 81 % 0 lf 1021,8 hPa 0,0 l/m 0 min 0 min 0 W/m 4,2 km/h (1 Bft) 93,62 %
23.09.2017 20:00 15,7 C 13,3 C 11,7 C 81 % 0 lf 1021,8 hPa 0,0 l/m 0 min 0 min 0 W/m 4,2 km/h (1 Bft) 93,62 %
23.09.2017 20:02 15,7 C 13,3 C 11,7 C 81 % 0 lf 1021,8 hPa 0,0 l/m 0 min 0 min 0 W/m 4,2 km/h (1 Bft) 93,48 %
23.09.2017 20:04 15,6 C 12,8 C 11,1 C 81 % 0 lf 1021,8 hPa 0,0 l/m 0 min 0 min 0 W/m 4,2 km/h (1 Bft) 93,62 %
23.09.2017 20:06 15,5 C 12,8 C 11,1 C 81 % 0 lf 1021,8 hPa 0,0 l/m 0 min 0 min 0 W/m 2,1 km/h (1 Bft) 91,49 %
23.09.2017 20:08 15,4 C 12,8 C 11,1 C 81 % 0 lf 1021,8 hPa 0,0 l/m 0 min 0 min 0 W/m 4,2 km/h (1 Bft) 93,62 %
23.09.2017 20:10 15,4 C 12,8 C 11,1 C 82 % 0 lf 1021,8 hPa 0,0 l/m 0 min 0 min 0 W/m 4,2 km/h (1 Bft) 93,62 %
23.09.2017 20:12 15,3 C 12,2 C 11,1 C 82 % 0 lf 1021,8 hPa 0,0 l/m 0 min 0 min 0 W/m 4,2 km/h (1 Bft) 95,65 %
23.09.2017 20:14 15,3 C 12,8 C 11,1 C 82 % 0 lf 1021,8 hPa 0,0 l/m 0 min 0 min 0 W/m 4,2 km/h (1 Bft) 95,74 %
23.09.2017 20:16 15,2 C 12,8 C 11,1 C 82 % 0 lf 1021,8 hPa 0,0 l/m 0 min 0 min 0 W/m 4,2 km/h (1 Bft) 91,49 %
23.09.2017 20:18 15,2 C 12,8 C 11,1 C 82 % 0 lf 1021,9 hPa 0,0 l/m 0 min 0 min 0 W/m 4,2 km/h (1 Bft) 93,62 %
23.09.2017 20:20 15,1 C 12,8 C 11,1 C 82 % 0 lf 1021,9 hPa 0,0 l/m 0 min 0 min 0 W/m 4,2 km/h (1 Bft) 94,83 %
23.09.2017 20:22 15,1 C 12,8 C 11,1 C 83 % 0 lf 1022,0 hPa 0,0 l/m 0 min 0 min 0 W/m 4,2 km/h (1 Bft) 94,44 %
23.09.2017 20:24 15,0 C 12,2 C 11,1 C 83 % 0 lf 1021,9 hPa 0,0 l/m 0 min 0 min 0 W/m 6,3 km/h (2 Bft) 95,65 %
23.09.2017 20:26 14,9 C 12,2 C 10,6 C 83 % 0 lf 1022,0 hPa 0,0 l/m 0 min 0 min 0 W/m 6,3 km/h (2 Bft) 93,62 %
23.09.2017 20:28 14,9 C 12,2 C 10,6 C 83 % 0 lf 1021,9 hPa 0,0 l/m 0 min 0 min 0 W/m 6,3 km/h (2 Bft) 95,74 %
23.09.2017 20:30 14,8 C 12,2 C 10,6 C 83 % 0 lf 1021,9 hPa 0,0 l/m 0 min 0 min 0 W/m 4,2 km/h (1 Bft) 95,74 %
23.09.2017 20:32 14,8 C 12,2 C 10,6 C 83 % 0 lf 1021,9 hPa 0,0 l/m 0 min 0 min 0 W/m 4,2 km/h (1 Bft) 93,62 %
23.09.2017 20:34 14,7 C 12,2 C 10,6 C 83 % 0 lf 1021,9 hPa 0,0 l/m 0 min 0 min 0 W/m 4,2 km/h (1 Bft) 93,62 %
23.09.2017 20:36 14,7 C 12,2 C 10,6 C 84 % 0 lf 1021,9 hPa 0,0 l/m 0 min 0 min 0 W/m 2,1 km/h (1 Bft) 93,48 %
23.09.2017 20:38 14,6 C 12,2 C 10,6 C 84 % 0 lf 1021,9 hPa 0,0 l/m 0 min 0 min 0 W/m 2,1 km/h (1 Bft) 95,74 %
23.09.2017 20:40 14,5 C 11,7 C 10,6 C 84 % 0 lf 1022,0 hPa 0,0 l/m 0 min 0 min 0 W/m 4,2 km/h (1 Bft) 95,74 %
23.09.2017 20:42 14,4 C 11,7 C 10,6 C 84 % 0 lf 1022,0 hPa 0,0 l/m 0 min 0 min 0 W/m 2,1 km/h (1 Bft) 95,74 %
23.09.2017 20:44 14,4 C 11,7 C 10,6 C 84 % 0 lf 1022,0 hPa 0,0 l/m 0 min 0 min 0 W/m 2,1 km/h (1 Bft) 95,74 %
23.09.2017 20:46 14,3 C 11,7 C 10,6 C 84 % 0 lf 1021,9 hPa 0,0 l/m 0 min 0 min 0 W/m 0,0 km/h (0 Bft) 97,87 %
23.09.2017 20:48 14,2 C 11,7 C 10,0 C 84 % 1 lf 1021,9 hPa 0,0 l/m 0 min 0 min 0 W/m 0,0 km/h (0 Bft) 97,83 %
23.09.2017 20:50 14,2 C 11,7 C 10,0 C 84 % 1 lf 1021,9 hPa 0,0 l/m 0 min 0 min 1 W/m 0,0 km/h (0 Bft) 98,31 %
23.09.2017 20:52 14,2 C 11,7 C 10,0 C 85 % 1 lf 1021,9 hPa 0,0 l/m 0 min 0 min 5 W/m 0,0 km/h (0 Bft) 100,00 %
23.09.2017 20:54 14,2 C 11,7 C 10,0 C 85 % 1 lf 1021,9 hPa 0,0 l/m 0 min 0 min 5 W/m 0,0 km/h (0 Bft) 97,87 %
23.09.2017 20:56 14,1 C 11,7 C 10,0 C 85 % 1 lf 1021,9 hPa 0,0 l/m 0 min 0 min 5 W/m 0,0 km/h (0 Bft) 100,00 %
23.09.2017 20:58 14,0 C 11,1 C 10,0 C 85 % 1 lf 1022,0 hPa 0,0 l/m 0 min 0 min 5 W/m 0,0 km/h (0 Bft) 97,87 %
23.09.2017 21:00 13,9 C 11,7 C 10,0 C 85 % 1 lf 1021,9 hPa 0,0 l/m 0 min 0 min 5 W/m 0,0 km/h (0 Bft) 100,00 %
23.09.2017 21:02 13,9 C 11,1 C 10,0 C 85 % 1 lf 1021,9 hPa 0,0 l/m 0 min 0 min 5 W/m 4,2 km/h (1 Bft) 97,87 %
23.09.2017 21:04 13,8 C 11,1 C 10,0 C 85 % 1 lf 1021,9 hPa 0,0 l/m 0 min 0 min 5 W/m 4,2 km/h (1 Bft) 100,00 %
23.09.2017 21:06 13,8 C 11,1 C 10,0 C 86 % 1 lf 1022,0 hPa 0,0 l/m 0 min 0 min 5 W/m 0,0 km/h (0 Bft) 100,00 %
23.09.2017 21:08 13,7 C 11,1 C 10,0 C 86 % 1 lf 1021,9 hPa 0,0 l/m 0 min 0 min 5 W/m 4,2 km/h (1 Bft) 100,00 %
23.09.2017 21:10 13,7 C 11,1 C 10,0 C 86 % 1 lf 1022,0 hPa 0,0 l/m 0 min 0 min 1 W/m 2,1 km/h (1 Bft) 97,87 %
23.09.2017 21:12 13,6 C 11,1 C 10,0 C 86 % 1 lf 1022,0 hPa 0,0 l/m 0 min 0 min 0 W/m 2,1 km/h (1 Bft) 100,00 %
23.09.2017 21:14 13,6 C 11,1 C 10,0 C 86 % 1 lf 1022,0 hPa 0,0 l/m 0 min 0 min 4 W/m 0,0 km/h (0 Bft) 100,00 %
23.09.2017 21:16 13,5 C 11,1 C 10,0 C 86 % 1 lf 1022,0 hPa 0,0 l/m 0 min 0 min 0 W/m 0,0 km/h (0 Bft) 97,87 %
23.09.2017 21:18 13,4 C 11,1 C 10,0 C 86 % 1 lf 1022,0 hPa 0,0 l/m 0 min 0 min 0 W/m 0,0 km/h (0 Bft) 100,00 %
23.09.2017 21:20 13,4 C 11,1 C 10,0 C 86 % 1 lf 1022,0 hPa 0,0 l/m 0 min 0 min 0 W/m 0,0 km/h (0 Bft) 98,28 %
23.09.2017 21:22 13,3 C 11,1 C 10,0 C 86 % 1 lf 1022,0 hPa 0,0 l/m 0 min 0 min 0 W/m 0,0 km/h (0 Bft) 97,22 %
23.09.2017 21:24 13,3 C 10,6 C 9,4 C 87 % 2 lf 1021,9 hPa 0,0 l/m 0 min 0 min 5 W/m 0,0 km/h (0 Bft) 100,00 %
23.09.2017 21:26 13,2 C 10,6 C 9,4 C 86 % 2 lf 1021,9 hPa 0,0 l/m 0 min 0 min 0 W/m 0,0 km/h (0 Bft) 100,00 %
23.09.2017 21:28 13,2 C 10,6 C 9,4 C 87 % 2 lf 1022,0 hPa 0,0 l/m 0 min 0 min 0 W/m 0,0 km/h (0 Bft) 100,00 %
23.09.2017 21:30 13,2 C 10,6 C 9,4 C 87 % 2 lf 1021,9 hPa 0,0 l/m 0 min 0 min 0 W/m 0,0 km/h (0 Bft) 100,00 %
23.09.2017 21:32 13,1 C 10,6 C 9,4 C 87 % 2 lf 1022,0 hPa 0,0 l/m 0 min 0 min 0 W/m 0,0 km/h (0 Bft) 97,87 %
23.09.2017 21:34 13,1 C 10,6 C 9,4 C 87 % 2 lf 1022,0 hPa 0,0 l/m 0 min 0 min 0 W/m 0,0 km/h (0 Bft) 100,00 %
23.09.2017 21:36 13,0 C 10,6 C 9,4 C 87 % 2 lf 1021,9 hPa 0,0 l/m 0 min 0 min 0 W/m 0,0 km/h (0 Bft) 100,00 %
23.09.2017 21:38 12,9 C 10,6 C 9,4 C 87 % 2 lf 1021,9 hPa 0,0 l/m 0 min 0 min 1 W/m 0,0 km/h (0 Bft) 97,87 %
23.09.2017 21:40 12,9 C 10,6 C 9,4 C 87 % 2 lf 1021,9 hPa 0,0 l/m 0 min 0 min 1 W/m 0,0 km/h (0 Bft) 100,00 %
23.09.2017 21:42 12,9 C 10,6 C 9,4 C 87 % 2 lf 1021,9 hPa 0,0 l/m 0 min 0 min 0 W/m 0,0 km/h (0 Bft) 97,87 %
23.09.2017 21:44 12,8 C 10,6 C 9,4 C 88 % 2 lf 1021,9 hPa 0,0 l/m 0 min 0 min 0 W/m 0,0 km/h (0 Bft) 100,00 %
23.09.2017 21:46 12,8 C 10,6 C 9,4 C 88 % 2 lf 1021,9 hPa 0,0 l/m 0 min 0 min 2 W/m 0,0 km/h (0 Bft) 100,00 %
23.09.2017 21:48 12,8 C 10,6 C 9,4 C 88 % 2 lf 1021,9 hPa 0,0 l/m 0 min 0 min 0 W/m 0,0 km/h (0 Bft) 100,00 %
23.09.2017 21:50 12,7 C 10,6 C 9,4 C 88 % 3 lf 1021,9 hPa 0,0 l/m 0 min 0 min 0 W/m 0,0 km/h (0 Bft) 100,00 %
23.09.2017 21:52 12,7 C 10,6 C 9,4 C 88 % 3 lf 1021,8 hPa 0,0 l/m 0 min 0 min 0 W/m 0,0 km/h (0 Bft) 100,00 %
23.09.2017 21:54 12,7 C 10,6 C 9,4 C 88 % 3 lf 1021,8 hPa 0,0 l/m 0 min 0 min 0 W/m 0,0 km/h (0 Bft) 97,87 %
23.09.2017 21:56 12,6 C 10,6 C 9,4 C 88 % 3 lf 1021,8 hPa 0,0 l/m 0 min 0 min 0 W/m 0,0 km/h (0 Bft) 100,00 %
23.09.2017 21:58 12,6 C 10,0 C 9,4 C 88 % 3 lf 1021,9 hPa 0,0 l/m 0 min 0 min 0 W/m 0,0 km/h (0 Bft) 97,87 %
23.09.2017 22:00 12,5 C 10,0 C 9,4 C 88 % 3 lf 1021,8 hPa 0,0 l/m 0 min 0 min 0 W/m 0,0 km/h (0 Bft) 97,83 %
23.09.2017 22:02 12,5 C 10,0 C 9,4 C 89 % 3 lf 1021,9 hPa 0,0 l/m 0 min 0 min 0 W/m 0,0 km/h (0 Bft) 97,87 %
23.09.2017 22:04 12,4 C 10,0 C 8,9 C 89 % 3 lf 1021,9 hPa 0,0 l/m 0 min 0 min 0 W/m 0,0 km/h (0 Bft) 97,87 %
23.09.2017 22:06 12,4 C 10,0 C 8,9 C 89 % 3 lf 1021,9 hPa 0,0 l/m 0 min 0 min 0 W/m 0,0 km/h (0 Bft) 97,87 %
23.09.2017 22:08 12,4 C 10,0 C 8,9 C 89 % 3 lf 1021,8 hPa 0,0 l/m 0 min 0 min 0 W/m 0,0 km/h (0 Bft) 97,87 %
23.09.2017 22:10 12,3 C 10,0 C 8,9 C 89 % 3 lf 1021,9 hPa 0,0 l/m 0 min 0 min 0 W/m 0,0 km/h (0 Bft) 95,65 %
23.09.2017 22:12 12,3 C 10,0 C 8,9 C 89 % 3 lf 1021,8 hPa 0,0 l/m 0 min 0 min 0 W/m 0,0 km/h (0 Bft) 93,62 %
23.09.2017 22:14 12,3 C 10,0 C 8,9 C 89 % 4 lf 1021,8 hPa 0,0 l/m 0 min 0 min 0 W/m 0,0 km/h (0 Bft) 95,74 %
23.09.2017 22:16 12,3 C 10,0 C 9,4 C 89 % 4 lf 1021,9 hPa 0,0 l/m 0 min 0 min 0 W/m 0,0 km/h (0 Bft) 93,62 %
23.09.2017 22:18 12,2 C 10,0 C 8,9 C 89 % 4 lf 1021,9 hPa 0,0 l/m 0 min 0 min 0 W/m 0,0 km/h (0 Bft) 100,00 %
23.09.2017 22:20 12,2 C 10,0 C 8,9 C 89 % 4 lf 1021,8 hPa 0,0 l/m 0 min 0 min 0 W/m 0,0 km/h (0 Bft) 94,83 %
23.09.2017 22:22 12,2 C 10,0 C 8,9 C 89 % 4 lf 1021,8 hPa 0,0 l/m 0 min 0 min 0 W/m 0,0 km/h (0 Bft) 94,29 %
23.09.2017 22:24 12,1 C 10,0 C 8,9 C 89 % 4 lf 1021,8 hPa 0,0 l/m 0 min 0 min 0 W/m 0,0 km/h (0 Bft) 93,62 %
23.09.2017 22:26 12,1 C 10,0 C 8,9 C 89 % 5 lf 1021,8 hPa 0,0 l/m 0 min 0 min 0 W/m 0,0 km/h (0 Bft) 91,49 %
23.09.2017 22:28 12,0 C 10,0 C 8,9 C 89 % 6 lf 1021,8 hPa 0,0 l/m 0 min 0 min 0 W/m 0,0 km/h (0 Bft) 95,74 %
23.09.2017 22:30 12,0 C 10,0 C 8,9 C 89 % 6 lf 1021,8 hPa 0,0 l/m 0 min 0 min 3 W/m 0,0 km/h (0 Bft) 87,23 %
23.09.2017 22:32 11,9 C 10,0 C 8,9 C 89 % 7 lf 1021,8 hPa 0,0 l/m 0 min 0 min 5 W/m 0,0 km/h (0 Bft) 93,62 %
23.09.2017 22:34 11,9 C 10,0 C 8,9 C 89 % 7 lf 1021,8 hPa 0,0 l/m 0 min 0 min 5 W/m 0,0 km/h (0 Bft) 93,48 %
23.09.2017 22:36 11,9 C 9,4 C 8,9 C 90 % 8 lf 1021,8 hPa 0,0 l/m 0 min 0 min 5 W/m 0,0 km/h (0 Bft) 95,74 %
23.09.2017 22:38 11,8 C 9,4 C 8,9 C 90 % 8 lf 1021,8 hPa 0,0 l/m 0 min 0 min 5 W/m 0,0 km/h (0 Bft) 95,74 %
23.09.2017 22:40 11,8 C 9,4 C 8,9 C 90 % 9 lf 1021,8 hPa 0,0 l/m 0 min 0 min 5 W/m 0,0 km/h (0 Bft) 95,74 %
23.09.2017 22:42 11,8 C 9,4 C 8,9 C 90 % 9 lf 1021,9 hPa 0,0 l/m 0 min 0 min 0 W/m 0,0 km/h (0 Bft) 91,49 %
23.09.2017 22:44 11,7 C 9,4 C 8,9 C 90 % 10 lf 1021,8 hPa 0,0 l/m 0 min 0 min 0 W/m 0,0 km/h (0 Bft) 95,74 %
23.09.2017 22:46 11,7 C 9,4 C 8,9 C 90 % 10 lf 1021,9 hPa 0,0 l/m 0 min 0 min 0 W/m 0,0 km/h (0 Bft) 95,65 %
23.09.2017 22:48 11,7 C 9,4 C 8,9 C 90 % 10 lf 1021,9 hPa 0,0 l/m 0 min 0 min 0 W/m 0,0 km/h (0 Bft) 95,74 %
23.09.2017 22:50 11,7 C 9,4 C 8,9 C 90 % 11 lf 1021,9 hPa 0,0 l/m 0 min 0 min 0 W/m 0,0 km/h (0 Bft) 94,92 %
23.09.2017 22:52 11,7 C 9,4 C 8,9 C 90 % 12 lf 1021,9 hPa 0,0 l/m 0 min 0 min 0 W/m 0,0 km/h (0 Bft) 94,29 %
23.09.2017 22:54 11,6 C 9,4 C 8,9 C 90 % 12 lf 1021,9 hPa 0,0 l/m 0 min 0 min 0 W/m 0,0 km/h (0 Bft) 93,62 %
23.09.2017 22:56 11,6 C 9,4 C 8,9 C 90 % 12 lf 1021,9 hPa 0,0 l/m 0 min 0 min 0 W/m 0,0 km/h (0 Bft) 95,65 %
23.09.2017 22:58 11,6 C 9,4 C 8,3 C 90 % 13 lf 1021,9 hPa 0,0 l/m 0 min 0 min 0 W/m 0,0 km/h (0 Bft) 93,62 %
23.09.2017 23:00 11,5 C 9,4 C 8,3 C 90 % 13 lf 1021,9 hPa 0,0 l/m 0 min 0 min 0 W/m 0,0 km/h (0 Bft) 95,74 %
23.09.2017 23:02 11,5 C 9,4 C 8,3 C 90 % 13 lf 1021,9 hPa 0,0 l/m 0 min 0 min 0 W/m 0,0 km/h (0 Bft) 93,62 %
23.09.2017 23:04 11,4 C 9,4 C 8,3 C 90 % 13 lf 1021,8 hPa 0,0 l/m 0 min 0 min 0 W/m 0,0 km/h (0 Bft) 95,74 %
23.09.2017 23:06 11,4 C 9,4 C 8,3 C 91 % 14 lf 1021,9 hPa 0,0 l/m 0 min 0 min 5 W/m 0,0 km/h (0 Bft) 91,49 %
23.09.2017 23:08 11,4 C 9,4 C 8,9 C 90 % 14 lf 1021,9 hPa 0,0 l/m 0 min 0 min 0 W/m 0,0 km/h (0 Bft) 95,65 %
23.09.2017 23:10 11,4 C 9,4 C 8,9 C 91 % 14 lf 1021,9 hPa 0,0 l/m 0 min 0 min 0 W/m 0,0 km/h (0 Bft) 95,74 %
23.09.2017 23:12 11,4 C 9,4 C 8,9 C 91 % 14 lf 1021,9 hPa 0,0 l/m 0 min 0 min 0 W/m 0,0 km/h (0 Bft) 93,62 %
23.09.2017 23:14 11,4 C 9,4 C 8,3 C 91 % 14 lf 1021,8 hPa 0,0 l/m 0 min 0 min 0 W/m 0,0 km/h (0 Bft) 97,87 %
23.09.2017 23:16 11,3 C 9,4 C 8,3 C 91 % 14 lf 1021,9 hPa 0,0 l/m 0 min 0 min 0 W/m 0,0 km/h (0 Bft) 97,87 %
23.09.2017 23:18 11,3 C 9,4 C 8,3 C 91 % 14 lf 1021,9 hPa 0,0 l/m 0 min 0 min 0 W/m 0,0 km/h (0 Bft) 97,87 %
23.09.2017 23:20 11,3 C 9,4 C 8,3 C 91 % 15 lf 1021,9 hPa 0,0 l/m 0 min 0 min 0 W/m 0,0 km/h (0 Bft) 98,28 %
23.09.2017 23:22 11,3 C 9,4 C 8,3 C 91 % 15 lf 1021,9 hPa 0,0 l/m 0 min 0 min 0 W/m 0,0 km/h (0 Bft) 97,14 %
23.09.2017 23:24 11,2 C 9,4 C 8,3 C 91 % 15 lf 1021,9 hPa 0,0 l/m 0 min 0 min 0 W/m 0,0 km/h (0 Bft) 97,87 %
23.09.2017 23:26 11,2 C 9,4 C 8,3 C 91 % 15 lf 1021,9 hPa 0,0 l/m 0 min 0 min 0 W/m 0,0 km/h (0 Bft) 97,87 %
23.09.2017 23:28 11,2 C 9,4 C 8,3 C 91 % 15 lf 1021,8 hPa 0,0 l/m 0 min 0 min 0 W/m 0,0 km/h (0 Bft) 95,74 %
23.09.2017 23:30 11,2 C 8,9 C 8,3 C 91 % 15 lf 1021,8 hPa 0,0 l/m 0 min 0 min 5 W/m 0,0 km/h (0 Bft) 97,87 %
23.09.2017 23:32 11,1 C 8,9 C 8,3 C 91 % 15 lf 1021,8 hPa 0,0 l/m 0 min 0 min 5 W/m 0,0 km/h (0 Bft) 95,65 %
23.09.2017 23:34 11,1 C 8,9 C 8,3 C 91 % 15 lf 1021,8 hPa 0,0 l/m 0 min 0 min 0 W/m 0,0 km/h (0 Bft) 95,74 %
23.09.2017 23:36 11,1 C 8,9 C 8,3 C 91 % 15 lf 1021,8 hPa 0,0 l/m 0 min 0 min 0 W/m 0,0 km/h (0 Bft) 93,62 %
23.09.2017 23:38 11,1 C 8,9 C 8,3 C 91 % 15 lf 1021,8 hPa 0,0 l/m 0 min 0 min 0 W/m 0,0 km/h (0 Bft) 97,87 %
23.09.2017 23:40 11,0 C 8,9 C 8,3 C 91 % 15 lf 1021,8 hPa 0,0 l/m 0 min 0 min 0 W/m 0,0 km/h (0 Bft) 97,87 %
23.09.2017 23:42 11,0 C 8,9 C 8,3 C 91 % 15 lf 1021,8 hPa 0,0 l/m 0 min 0 min 0 W/m 0,0 km/h (0 Bft) 95,74 %
23.09.2017 23:44 11,0 C 8,9 C 8,3 C 91 % 15 lf 1021,9 hPa 0,0 l/m 0 min 0 min 0 W/m 0,0 km/h (0 Bft) 95,65 %
23.09.2017 23:46 10,9 C 8,9 C 8,3 C 91 % 15 lf 1021,8 hPa 0,0 l/m 0 min 0 min 0 W/m 0,0 km/h (0 Bft) 97,87 %
23.09.2017 23:48 10,9 C 8,9 C 8,3 C 91 % 15 lf 1021,8 hPa 0,0 l/m 0 min 0 min 0 W/m 0,0 km/h (0 Bft) 97,87 %
23.09.2017 23:50 10,9 C 8,9 C 8,3 C 91 % 15 lf 1021,8 hPa 0,0 l/m 0 min 0 min 0 W/m 0,0 km/h (0 Bft) 98,31 %
23.09.2017 23:52 10,9 C 8,9 C 8,3 C 92 % 15 lf 1021,8 hPa 0,0 l/m 0 min 0 min 0 W/m 0,0 km/h (0 Bft) 97,14 %
23.09.2017 23:54 10,8 C 8,9 C 8,3 C 91 % 15 lf 1021,8 hPa 0,0 l/m 0 min 0 min 0 W/m 0,0 km/h (0 Bft) 97,87 %
23.09.2017 23:56 10,8 C 8,9 C 8,3 C 91 % 15 lf 1021,8 hPa 0,0 l/m 0 min 0 min 0 W/m 0,0 km/h (0 Bft) 93,48 %
23.09.2017 23:58 10,8 C 8,9 C 8,3 C 91 % 15 lf 1021,8 hPa 0,0 l/m 0 min 0 min 5 W/m 0,0 km/h (0 Bft) 93,62 %
_ Min-Zeit 23:54 23:30 22:58 16:16 10:48 17:42 - - - - 00:00 07:12
Minimum _ 10,8 C 8,9 C 8,3 C 68 % 0 lf 1021,4 hPa - - - - 0,0 km/h (0 Bft) 87,23 %
_ Max-Zeit 14:54 14:32 14:48 10:38 00:00 10:28 00:00 12:10 00:00 13:02 14:42 02:18
Maximum _ 19,5 C 30,0 C 20,0 C 99 % 15 lf 1024,0 hPa 0,0 l/m 4 min 0 min 872 W/m 16,7 km/h
N-NO (3 Bft)
100,00 %
Durchschnitt _ 14,6 C 15,6 C 13,1 C 88 % 8 lf 1022,5 hPa #0,0 l/m #7:12 h #0 min. 255 W/m 5,1 km/h (1 Bft) 96,53 %
© 2017 W. Hausmann